W2GRK-15 Weather Reports


Display with metric or nautical units.
time (UTC)temp
F
wind
direction
speed
MPH
gust
MPH
rain 1hr
in
rain 24hr
in
rain mn
in
humidity
%
barometer
mb
20260902030325 69 6 1.0 4.0 0.00 0.85 0.85 94 1018.6
20260902030220 69 25 0.0 1.0 0.00 0.85 0.85 94 1018.6
20260902030116 69 360 1.0 2.0 0.00 0.85 0.85 94 1018.4
20260902030028 69 334 0.0 1.0 0.00 0.85 0.85 94 1018.8
20260902025923 69 335 0.0 1.0 0.00 0.85 0.85 94 1018.9
20260902025819 69 335 1.0 1.0 0.00 0.85 0.85 94 1018.7
20260902025731 69 334 1.0 2.0 0.00 0.85 0.85 94 1018.6
20260902025626 69 332 0.0 2.0 0.00 0.85 0.85 94 1018.6
20260902025541 69 27 1.0 1.0 0.00 0.85 0.85 94 1018.6
20260902025417 69 298 1.0 2.0 0.00 0.85 0.85 94 1018.6
20260902025328 69 275 0.0 1.0 0.00 0.85 0.85 94 1018.6
20260902025224 69 263 1.0 2.0 0.00 0.85 0.85 94 1018.8
20260902025120 69 65 0.0 1.0 0.00 0.85 0.85 94 1018.9
20260902025015 69 70 1.0 1.0 0.00 0.85 0.85 94 1018.8
20260902024947 69 0.0 0.0 0.00 0.85 0.85 94 1019.0
20260902024822 69 74 0.0 1.0 0.00 0.85 0.85 94 1019.1
20260902024718 69 74 0.0 1.0 0.00 0.85 0.85 94 1019.1
20260902024629 69 75 1.0 2.0 0.00 0.85 0.85 94 1018.9
20260902024525 69 75 1.0 2.0 0.00 0.85 0.85 94 1018.9
20260902024420 69 76 1.0 1.0 0.00 0.85 0.85 94 1018.8
20260902024316 69 78 1.0 1.0 0.00 0.85 0.85 94 1018.7
20260902024227 69 77 1.0 1.0 0.00 0.85 0.85 94 1018.7
20260902024123 69 55 2.0 3.0 0.00 0.85 0.85 93 1018.9
20260902024039 69 49 0.0 1.0 0.00 0.85 0.85 93 1018.8
20260902023951 69 48 0.0 1.0 0.00 0.85 0.85 93 1018.8
20260902023826 69 54 1.0 2.0 0.00 0.85 0.85 93 1018.8
20260902023722 69 52 0.0 1.0 0.00 0.85 0.85 93 1018.8
20260902023637 69 51 0.0 1.0 0.00 0.85 0.85 93 1018.8
20260902023529 69 51 0.0 1.0 0.00 0.85 0.85 93 1018.9
20260902023424 69 51 0.0 1.0 0.00 0.85 0.85 93 1018.7
20260902023320 69 51 0.0 1.0 0.00 0.85 0.85 93 1018.6
20260902023216 69 51 0.0 1.0 0.00 0.85 0.85 93 1018.8
20260902023147 69 62 0.0 2.0 0.00 0.85 0.85 93 1018.7
20260902023023 69 114 1.0 1.0 0.00 0.85 0.85 93 1018.7
20260902022938 69 114 1.0 1.0 0.00 0.85 0.85 93 1018.7
20260902022830 69 114 1.0 2.0 0.00 0.85 0.85 93 1018.7
20260902022726 69 108 1.0 2.0 0.00 0.85 0.85 93 1018.7
20260902022621 69 99 0.0 1.0 0.00 0.85 0.85 93 1018.8
20260902022517 70 99 1.0 2.0 0.00 0.85 0.85 93 1018.5
20260902022428 70 130 1.0 2.0 0.00 0.85 0.85 93 1018.5
20260902022324 70 109 1.0 3.0 0.00 0.85 0.85 93 1018.6
20260902022219 70 265 1.0 1.0 0.00 0.85 0.85 93 1018.6
20260902022131 70 266 0.0 1.0 0.00 0.85 0.85 93 1018.4
20260902022027 70 272 1.0 3.0 0.00 0.85 0.85 92 1018.7
20260902021922 70 90 2.0 4.0 0.00 0.85 0.85 92 1018.5
20260902021818 70 101 0.0 2.0 0.00 0.85 0.85 93 1018.5
20260902021729 70 108 1.0 2.0 0.00 0.85 0.85 93 1018.3
20260902021625 70 101 2.0 3.0 0.00 0.85 0.85 93 1018.4
20260902021520 70 107 1.0 3.0 0.00 0.85 0.85 92 1018.4
20260902021416 70 30 0.0 1.0 0.00 0.85 0.85 92 1018.3
20260902021328 70 30 1.0 1.0 0.00 0.85 0.85 92 1018.3
20260902021243 70 38 0.0 1.0 0.00 0.85 0.85 92 1018.4
20260902021119 70 38 1.0 2.0 0.00 0.85 0.85 92 1018.4
20260902021030 70 45 0.0 1.0 0.00 0.85 0.85 92 1018.3
20260902020926 70 45 1.0 1.0 0.00 0.85 0.85 92 1018.3
20260902020821 70 45 1.0 2.0 0.00 0.85 0.85 92 1018.2
20260902020737 70 103 2.0 3.0 0.00 0.85 0.85 92 1018.1
20260902020628 71 67 1.0 4.0 0.00 0.85 0.85 92 1018.2
20260902020524 71 63 1.0 1.0 0.00 0.85 0.85 92 1018.2
20260902020420 71 64 1.0 2.0 0.00 0.85 0.85 92 1018.0
20260902020315 71 65 1.0 3.0 0.00 0.85 0.85 92 1017.9
20260902020227 71 85 3.0 4.0 0.00 0.85 0.85 93 1018.0
20260902020142 71 76 1.0 2.0 0.00 0.85 0.85 93 1017.9
20260902020038 71 89 1.0 1.0 0.00 0.85 0.85 93 1017.8
20260902015929 71 92 1.0 2.0 0.00 0.85 0.85 93 1017.9
20260902015825 71 49 1.0 3.0 0.00 0.85 0.85 93 1017.9
20260902015721 71 116 1.0 4.0 0.00 0.85 0.85 93 1017.9
20260902015616 71 70 0.0 1.0 0.00 0.85 0.85 93 1017.7
20260902015528 71 69 0.0 1.0 0.00 0.85 0.85 93 1017.9
20260902015443 71 70 1.0 2.0 0.00 0.85 0.85 93 1017.8
20260902015359 71 70 1.0 2.0 0.00 0.85 0.85 93 1017.8
20260902015230 71 67 1.0 1.0 0.00 0.85 0.85 93 1017.8
20260902014926 71 68 1.0 1.0 0.00 0.85 0.85 93 1017.8
20260902014822 72 68 1.0 2.0 0.00 0.85 0.85 93 1018.0
20260902014717 72 63 1.0 2.0 0.00 0.85 0.85 93 1017.8
20260902014629 72 64 1.0 2.0 0.00 0.85 0.85 93 1017.6
20260902014545 72 8 1.0 1.0 0.00 0.85 0.85 93 1017.6
20260902014420 72 4 1.0 2.0 0.00 0.85 0.85 93 1017.5
20260902014315 72 43 2.0 3.0 0.00 0.85 0.85 94 1017.5
20260902014227 72 81 1.0 1.0 0.00 0.85 0.85 94 1017.5
20260902014123 72 79 1.0 2.0 0.00 0.85 0.85 94 1017.4
20260902014018 72 72 1.0 2.0 0.00 0.85 0.85 94 1017.4
20260902013930 72 55 1.0 3.0 0.00 0.85 0.85 94 1017.5
20260902013846 72 13 1.0 2.0 0.00 0.85 0.85 94 1017.3
20260902013721 72 311 1.0 1.0 0.00 0.85 0.85 94 1017.3
20260902013617 72 312 1.0 1.0 0.00 0.85 0.85 94 1017.3
20260902013528 72 307 1.0 3.0 0.00 0.85 0.85 94 1017.3
20260902013424 72 56 0.0 1.0 0.00 0.85 0.85 94 1017.1
20260902013340 72 56 0.0 1.0 0.00 0.85 0.85 94 1017.1
20260902013215 72 47 1.0 2.0 0.00 0.85 0.85 94 1017.2
20260902013146 72 39 1.0 3.0 0.00 0.85 0.85 94 1017.4
20260902013021 72 90 0.0 1.0 0.00 0.85 0.85 94 1017.4
20260902012916 72 89 0.0 1.0 0.00 0.85 0.85 95 1017.3
20260902012828 72 89 0.0 1.0 0.00 0.85 0.85 95 1017.4
20260902012724 72 90 1.0 3.0 0.00 0.85 0.85 95 1017.4
20260902012620 72 91 1.0 1.0 0.00 0.85 0.85 95 1017.3
20260902012535 72 116 0.0 2.0 0.00 0.85 0.85 95 1017.2
20260902012427 72 0.0 0.0 0.00 0.85 0.85 95 1017.2
20260902012323 72 116 0.0 1.0 0.00 0.85 0.85 95 1017.1
20260902012218 72 0.0 0.0 0.00 0.85 0.85 95 1017.1
20260902012130 72 116 0.0 1.0 0.00 0.85 0.85 95 1017.1
20260902012025 72 116 0.0 1.0 0.00 0.85 0.85 95 1017.1
20260902011921 72 0.0 0.0 0.00 0.85 0.85 95 1017.1
20260902011836 72 115 1.0 2.0 0.00 0.85 0.85 95 1017.0
20260902011728 72 93 0.0 1.0 0.00 0.85 0.85 95 1017.0
20260902011643 72 0.0 0.0 0.00 0.85 0.85 95 1016.9
20260902011519 72 93 0.0 1.0 0.00 0.85 0.85 95 1016.9
20260902011430 72 101 2.0 3.0 0.00 0.85 0.85 95 1016.7
20260902011326 72 168 1.0 2.0 0.00 0.85 0.85 94 1016.9
20260902011222 72 179 1.0 1.0 0.00 0.85 0.85 93 1016.7
20260902011137 72 179 1.0 1.0 0.00 0.85 0.85 93 1017.0
20260902011029 72 0.0 0.0 0.00 0.85 0.85 93 1017.0
20260902010925 72 0.0 0.0 0.00 0.85 0.85 92 1017.0
20260902010820 71 0.0 0.0 0.00 0.85 0.85 92 1017.0
20260902010716 72 0.0 0.0 0.00 0.85 0.85 92 1016.9
20260902010628 72 0.0 0.0 0.00 0.85 0.85 92 1017.1
20260902010523 72 0.0 0.0 0.00 0.85 0.85 93 1017.0
20260902010419 72 0.0 0.0 0.00 0.85 0.85 93 1016.9
20260902010330 72 0.0 0.0 0.00 0.85 0.85 93 1017.0
20260902010246 71 0.0 0.0 0.00 0.85 0.85 93 1017.1
20260902010121 71 0.0 0.0 0.00 0.85 0.85 93 1016.8
20260902010017 71 180 0.0 1.0 0.00 0.85 0.85 93 1017.0
20260902005949 71 180 1.0 1.0 0.00 0.85 0.85 93 1017.0
20260902005824 71 180 1.0 1.0 0.00 0.85 0.85 93 1016.8
20260902005740 71 180 1.0 1.0 0.00 0.85 0.85 92 1016.8
20260902005615 71 0.0 0.0 0.00 0.85 0.85 92 1016.7
20260902005527 71 0.0 0.0 0.00 0.85 0.85 93 1016.6
20260902005423 71 0.0 0.0 0.00 0.85 0.85 93 1016.3
20260902005338 71 0.0 0.0 0.00 0.85 0.85 93 1016.2
20260902005229 71 0.0 0.0 0.00 0.85 0.85 93 1016.3
20260902005125 71 179 1.0 1.0 0.00 0.85 0.85 93 1016.3
20260902005041 71 179 1.0 1.0 0.00 0.85 0.85 93 1016.5
20260902004956 71 179 0.0 1.0 0.01 0.85 0.85 93 1016.5
20260902004828 71 179 1.0 1.0 0.01 0.85 0.85 93 1016.7
20260902004723 71 179 1.0 1.0 0.01 0.85 0.85 94 1016.6
20260902004619 72 179 1.0 2.0 0.02 0.85 0.85 93 1016.9
20260902004531 72 180 2.0 2.0 0.04 0.85 0.85 93 1016.6
20260902004426 71 188 2.0 2.0 0.05 0.85 0.85 92 1016.7
20260902004322 71 199 1.0 1.0 0.06 0.85 0.85 92 1016.8
20260902004217 71 200 1.0 1.0 0.06 0.85 0.85 93 1016.7
20260902004149 71 201 0.0 1.0 0.07 0.85 0.85 93 1016.6
20260902004024 71 203 1.0 2.0 0.07 0.85 0.85 92 1016.8
20260902003920 71 0.0 0.0 0.08 0.85 0.85 92 1016.5
20260902003815 71 224 0.0 1.0 0.10 0.85 0.85 92 1016.5
20260902003727 72 223 0.0 1.0 0.12 0.85 0.85 92 1016.5
20260902003622 71 224 0.0 1.0 0.15 0.85 0.85 92 1016.4
20260902003518 72 224 0.0 1.0 0.21 0.85 0.85 92 1016.4
20260902003450 72 0.0 0.0 0.23 0.85 0.85 92 1016.4
20260902003325 72 0.0 0.0 0.24 0.85 0.85 92 1016.2
20260902003221 71 224 0.0 1.0 0.24 0.85 0.85 90 1016.2
20260902003116 72 0.0 0.0 0.25 0.85 0.85 90 1016.4
20260902003048 72 0.0 0.0 0.26 0.85 0.85 90 1016.3
20260902002924 72 0.0 0.0 0.28 0.85 0.85 90 1016.3
20260902002819 72 0.0 0.0 0.29 0.85 0.85 90 1016.3
20260902002731 72 0.0 0.0 0.30 0.85 0.85 90 1016.3
20260902002626 72 0.0 0.0 0.31 0.85 0.85 90 1016.4
20260902002521 72 0.0 0.0 0.32 0.85 0.85 90 1016.5
20260902002417 72 0.0 0.0 0.33 0.85 0.85 90 1016.2
20260902002328 72 0.0 0.0 0.35 0.85 0.85 90 1016.2
20260902002224 72 0.0 0.0 0.39 0.85 0.85 90 1016.3
20260902002120 72 0.0 0.0 0.39 0.85 0.85 91 1016.1
20260902002015 72 225 0.0 1.0 0.41 0.85 0.85 90 1016.0
20260902001927 72 0.0 0.0 0.43 0.85 0.85 90 1016.1
20260902001822 72 0.0 0.0 0.47 0.85 0.85 90 1015.9
20260902001718 72 0.0 0.0 0.48 0.85 0.85 90 1016.0
20260902001630 72 0.0 0.0 0.50 0.85 0.85 90 1016.0
20260902001545 72 0.0 0.0 0.55 0.85 0.85 90 1016.1
20260902001421 72 0.0 0.0 0.63 0.85 0.85 91 1016.1
20260902001317 72 225 0.0 1.0 0.63 0.85 0.85 91 1015.9
20260902001228 72 0.0 0.0 0.71 0.85 0.85 91 1016.1
20260902001144 72 0.0 0.0 0.78 0.85 0.85 90 1016.2
20260902001020 72 0.0 0.0 0.83 0.85 0.85 90 1016.0
20260902000915 72 0.0 0.0 0.83 0.85 0.85 90 1016.2
20260902000827 72 0.0 0.0 0.83 0.85 0.85 90 1016.1
20260902000723 72 0.0 0.0 0.83 0.85 0.85 90 1016.1
20260902000638 72 0.0 0.0 0.83 0.85 0.85 90 1016.0
20260902000610 72 0.0 0.0 0.83 0.85 0.85 90 1015.9
20260902000426 72 225 0.0 1.0 0.83 0.85 0.85 90 1015.9
20260902000322 72 224 1.0 1.0 0.83 0.85 0.85 90 1016.0
20260902000218 72 224 1.0 1.0 0.83 0.85 0.85 89 1016.2
20260902000128 72 225 0.0 1.0 0.83 0.85 0.85 89 1016.0
20260902000024 72 0.0 0.0 0.83 0.85 0.85 89 1016.1
20260901235920 72 0.0 0.0 0.83 0.85 0.85 89 1016.1
20260901235815 72 0.0 0.0 0.83 0.85 0.85 89 1016.1
20260901235727 72 225 0.0 1.0 0.83 0.85 0.85 89 1016.3
20260901235622 72 225 0.0 1.0 0.83 0.85 0.85 89 1016.3
20260901235518 72 225 1.0 1.0 0.83 0.85 0.85 89 1016.1
20260901235430 72 0.0 0.0 0.83 0.85 0.85 89 1016.0
20260901235325 72 225 1.0 1.0 0.82 0.85 0.85 89 1015.9
20260901235221 72 225 1.0 1.0 0.82 0.85 0.85 89 1015.8
20260901235117 72 224 1.0 1.0 0.82 0.85 0.85 88 1015.9
20260901235029 72 224 0.0 1.0 0.82 0.85 0.85 88 1015.9
20260901234924 72 225 0.0 1.0 0.82 0.85 0.85 88 1016.0
20260901234819 72 0.0 0.0 0.81 0.84 0.84 88 1016.0
20260901234715 72 0.0 0.0 0.81 0.84 0.84 88 1016.1
20260901234647 72 0.0 0.0 0.80 0.83 0.83 89 1016.4
20260901234522 72 0.0 0.0 0.79 0.81 0.81 89 1016.4
20260901234418 72 0.0 0.0 0.78 0.81 0.81 89 1016.4
20260901234350 72 231 2.0 3.0 0.77 0.80 0.80 89 1016.7
20260901234225 73 226 2.0 3.0 0.76 0.79 0.79 89 1016.6
20260901234121 73 110 1.0 2.0 0.76 0.78 0.78 89 1016.6
20260901234016 73 107 2.0 3.0 0.75 0.78 0.78 89 1016.8
20260901233928 73 112 2.0 2.0 0.75 0.78 0.78 88 1017.2
20260901233843 73 197 1.0 2.0 0.73 0.76 0.76 87 1017.3
20260901233719 73 272 1.0 2.0 0.70 0.73 0.73 86 1017.6
20260901233631 73 251 1.0 2.0 0.68 0.70 0.70 87 1017.6
20260901233526 73 246 3.0 3.0 0.61 0.64 0.64 87 1018.0
20260901233442 74 265 2.0 3.0 0.59 0.62 0.62 86 1018.0
20260901233317 74 274 2.0 2.0 0.59 0.62 0.62 86 1017.8
20260901233229 74 249 2.0 3.0 0.58 0.61 0.61 86 1017.6
20260901233115 74 229 1.0 3.0 0.57 0.60 0.60 85 1017.5
20260901233027 74 254 3.0 6.0 0.56 0.59 0.59 86 1017.5
20260901232922 74 241 3.0 3.0 0.55 0.57 0.57 86 1017.6
20260901232818 74 254 2.0 3.0 0.54 0.56 0.56 86 1017.7
20260901232729 75 258 2.0 3.0 0.53 0.56 0.56 85 1017.2
20260901232645 75 0.0 0.0 0.52 0.54 0.54 84 1016.8
20260901232521 75 0.0 0.0 0.50 0.53 0.53 84 1016.8
20260901232416 75 249 0.0 1.0 0.49 0.52 0.52 84 1016.6
20260901232328 75 248 2.0 3.0 0.48 0.51 0.51 84 1016.7
20260901232223 76 274 2.0 3.0 0.44 0.46 0.46 84 1016.6
20260901232119 76 228 1.0 1.0 0.44 0.46 0.46 83 1016.5
20260901232031 76 223 1.0 1.0 0.42 0.45 0.45 83 1016.5
20260901232006 76 225 1.0 2.0 0.40 0.43 0.43 83 1016.8
20260901231821 77 228 2.0 4.0 0.36 0.39 0.39 82 1016.8
20260901231716 77 268 4.0 7.0 0.34 0.37 0.37 83 1016.8
20260901231628 77 313 7.0 13.0 0.33 0.35 0.35 83 1016.9
20260901231524 78 285 4.0 9.0 0.28 0.30 0.30 81 1016.8
20260901231419 78 295 4.0 6.0 0.19 0.22 0.22 76 1016.5
20260901231315 78 124 4.0 7.0 0.19 0.22 0.22 73 1016.5
20260901231227 79 103 8.0 15.0 0.11 0.14 0.14 84 1016.6
20260901231122 79 4 1.0 2.0 0.04 0.07 0.07 81 1016.8
20260901231018 79 15 2.0 2.0 0.00 0.03 0.03 81 1016.5
20260901230949 79 84 1.0 2.0 0.00 0.03 0.03 80 1016.2
20260901230825 79 89 1.0 1.0 0.00 0.03 0.03 80 1016.1
20260901230720 79 89 1.0 1.0 0.00 0.03 0.03 81 1016.0
20260901230616 79 93 1.0 2.0 0.00 0.03 0.03 81 1015.9
20260901230528 79 111 1.0 2.0 0.00 0.03 0.03 80 1015.9
20260901230443 79 112 0.0 1.0 0.00 0.03 0.03 80 1015.7
20260901230339 79 113 0.0 1.0 0.00 0.03 0.03 80 1015.5
20260901230230 79 117 1.0 2.0 0.00 0.03 0.03 80 1015.7
20260901230126 79 123 0.0 1.0 0.00 0.03 0.03 80 1015.6
20260901230022 79 122 1.0 1.0 0.00 0.03 0.03 80 1015.5
20260901225917 79 122 1.0 2.0 0.00 0.03 0.03 80 1015.5
20260901225828 79 86 2.0 3.0 0.00 0.03 0.03 80 1015.7
20260901225724 80 83 2.0 3.0 0.00 0.03 0.03 79 1015.9
20260901225619 80 98 4.0 6.0 0.00 0.03 0.03 79 1015.8
20260901225531 80 92 1.0 2.0 0.00 0.03 0.03 79 1015.7
20260901225427 80 80 3.0 4.0 0.00 0.03 0.03 79 1015.8
20260901225322 80 103 1.0 2.0 0.00 0.03 0.03 80 1015.9
20260901225217 80 92 2.0 2.0 0.00 0.03 0.03 79 1015.9
20260901225129 80 96 1.0 2.0 0.00 0.03 0.03 78 1016.0
20260901225025 80 116 2.0 2.0 0.00 0.03 0.03 78 1016.0
20260901224920 80 93 3.0 6.0 0.00 0.03 0.03 78 1016.0
20260901224815 80 93 3.0 7.0 0.00 0.03 0.03 78 1015.7
20260901224727 81 103 3.0 6.0 0.00 0.03 0.03 78 1015.6
20260901224623 81 113 2.0 6.0 0.00 0.03 0.03 77 1015.4
20260901224518 81 104 4.0 8.0 0.00 0.03 0.03 77 1015.2
20260901224430 81 102 5.0 9.0 0.00 0.03 0.03 78 1015.2
20260901224325 82 83 2.0 4.0 0.00 0.03 0.03 76 1015.4
20260901224221 82 93 7.0 14.0 0.00 0.03 0.03 76 1015.5
20260901224116 82 100 6.0 9.0 0.00 0.03 0.03 75 1015.5
20260901224028 82 102 4.0 8.0 0.00 0.03 0.03 75 1015.8
20260901223924 83 100 4.0 9.0 0.00 0.03 0.03 74 1015.7
20260901223819 83 71 4.0 8.0 0.00 0.03 0.03 74 1015.8
20260901223731 83 92 3.0 4.0 0.00 0.03 0.03 73 1015.8
20260901223646 83 86 4.0 7.0 0.00 0.03 0.03 73 1015.7
20260901223541 83 73 2.0 4.0 0.00 0.03 0.03 73 1015.7
20260901223417 83 100 3.0 4.0 0.00 0.03 0.03 73 1015.3
20260901223329 84 96 3.0 4.0 0.00 0.03 0.03 73 1015.2
20260901223224 84 101 3.0 4.0 0.00 0.03 0.03 73 1015.2
20260901223120 84 92 2.0 3.0 0.00 0.03 0.03 73 1015.5
20260901223015 84 93 2.0 3.0 0.00 0.03 0.03 72 1015.2
20260901222927 84 115 2.0 3.0 0.00 0.03 0.03 72 1015.3
20260901222822 84 104 2.0 3.0 0.00 0.03 0.03 72 1015.3
20260901222718 85 83 2.0 2.0 0.00 0.03 0.03 72 1015.3
20260901222630 85 84 3.0 6.0 0.00 0.03 0.03 71 1015.3
20260901222545 85 111 3.0 4.0 0.00 0.03 0.03 71 1015.2
20260901222440 85 89 3.0 4.0 0.00 0.03 0.03 71 1015.2
20260901222316 85 101 4.0 4.0 0.00 0.03 0.03 71 1015.0
20260901222228 86 120 1.0 3.0 0.00 0.03 0.03 70 1015.0
20260901222123 86 101 3.0 6.0 0.00 0.03 0.03 70 1015.1
20260901222019 86 95 4.0 4.0 0.00 0.03 0.03 70 1015.1
20260901221931 86 89 5.0 7.0 0.00 0.03 0.03 70 1015.1
20260901221826 87 109 4.0 6.0 0.00 0.03 0.03 70 1015.0
20260901221742 87 87 3.0 4.0 0.00 0.03 0.03 70 1015.0
20260901221617 87 94 1.0 2.0 0.00 0.03 0.03 70 1014.9
20260901221529 87 94 1.0 1.0 0.00 0.03 0.03 70 1014.9
20260901221444 87 93 1.0 1.0 0.00 0.03 0.03 69 1014.8
20260901221320 87 94 1.0 1.0 0.00 0.03 0.03 69 1014.7
20260901221216 87 94 0.0 1.0 0.00 0.03 0.03 70 1014.7
20260901221147 87 94 1.0 1.0 0.00 0.03 0.03 70 1014.7
20260901221022 88 94 0.0 1.0 0.00 0.03 0.03 70 1014.7
20260901220918 88 0.0 0.0 0.00 0.03 0.03 69 1014.6
20260901220829 88 93 1.0 1.0 0.00 0.03 0.03 69 1014.7
20260901220745 88 94 1.0 1.0 0.00 0.03 0.03 69 1014.7
20260901220641 88 94 1.0 1.0 0.00 0.03 0.03 69 1014.6
20260901220516 88 94 1.0 1.0 0.00 0.03 0.03 69 1014.6
20260901220448 88 93 0.0 1.0 0.00 0.03 0.03 68 1014.7
20260901220323 88 94 0.0 1.0 0.00 0.03 0.03 69 1014.8
20260901220219 88 0.0 0.0 0.00 0.03 0.03 69 1014.6
20260901220131 89 94 0.0 1.0 0.00 0.03 0.03 69 1014.9
20260901220026 89 0.0 0.0 0.00 0.03 0.03 69 1015.0
20260901215921 89 0.0 0.0 0.00 0.03 0.03 69 1015.0
20260901215817 89 0.0 0.0 0.00 0.03 0.03 69 1014.9
20260901215729 89 0.0 0.0 0.00 0.03 0.03 69 1014.9
20260901215624 89 0.0 0.0 0.00 0.03 0.03 69 1015.0
20260901215520 89 0.0 0.0 0.00 0.03 0.03 68 1015.2
20260901215416 89 94 0.0 1.0 0.00 0.03 0.03 68 1015.0
20260901215327 89 94 0.0 1.0 0.00 0.03 0.03 67 1015.1
20260901215222 89 94 0.0 1.0 0.00 0.03 0.03 66 1015.1
20260901215118 89 94 0.0 1.0 0.00 0.03 0.03 67 1015.0
20260901215050 89 94 0.0 1.0 0.00 0.03 0.03 66 1015.1
20260901214925 89 94 1.0 2.0 0.00 0.03 0.03 66 1015.1
20260901214821 90 93 2.0 2.0 0.00 0.03 0.03 66 1015.2
20260901214716 90 93 1.0 2.0 0.00 0.03 0.03 66 1015.3
20260901214628 90 92 1.0 1.0 0.00 0.03 0.03 66 1015.1
20260901214524 90 100 1.0 2.0 0.00 0.03 0.03 66 1015.1
20260901214419 90 146 1.0 1.0 0.00 0.03 0.03 66 1015.1
20260901214315 90 146 1.0 1.0 0.00 0.03 0.03 67 1015.0
20260901214227 90 146 1.0 2.0 0.00 0.03 0.03 66 1015.2
20260901214122 90 146 1.0 2.0 0.00 0.03 0.03 66 1015.2
20260901214018 90 146 1.0 2.0 0.00 0.03 0.03 67 1015.2
20260901213930 90 147 1.0 1.0 0.00 0.03 0.03 66 1015.2
20260901213845 90 147 0.0 1.0 0.00 0.03 0.03 66 1015.3
20260901213741 89 147 1.0 1.0 0.00 0.03 0.03 67 1015.2
20260901213616 89 147 1.0 2.0 0.00 0.03 0.03 67 1015.2
20260901213528 89 147 0.0 1.0 0.00 0.03 0.03 68 1015.2
20260901213424 89 147 0.0 1.0 0.00 0.03 0.03 70 1015.3
20260901213319 89 0.0 0.0 0.00 0.03 0.03 69 1015.3
20260901213215 89 146 1.0 1.0 0.00 0.03 0.03 70 1015.2
20260901213126 89 146 1.0 2.0 0.00 0.03 0.03 70 1015.2
20260901213022 89 0.0 0.0 0.00 0.03 0.03 70 1015.3
20260901212918 89 0.0 0.0 0.00 0.03 0.03 70 1015.3
20260901212829 89 0.0 0.0 0.00 0.03 0.03 70 1015.2
20260901212725 88 0.0 0.0 0.00 0.03 0.03 69 1015.2
20260901212621 88 0.0 0.0 0.00 0.03 0.03 68 1015.3
20260901212536 88 146 0.0 1.0 0.00 0.03 0.03 69 1015.0
20260901212448 88 146 0.0 1.0 0.00 0.03 0.03 69 1015.1
20260901212324 88 0.0 0.0 0.00 0.03 0.03 69 1015.1
20260901212239 88 0.0 0.0 0.00 0.03 0.03 67 1015.1
20260901212131 88 146 1.0 2.0 0.00 0.03 0.03 69 1015.1
20260901212026 88 147 0.0 1.0 0.00 0.03 0.03 68 1015.2
20260901211922 88 0.0 0.0 0.00 0.03 0.03 68 1015.2
20260901211817 88 147 0.0 1.0 0.00 0.03 0.03 68 1015.1
20260901211749 88 0.0 0.0 0.00 0.03 0.03 67 1015.3
20260901211624 88 0.0 0.0 0.00 0.03 0.03 67 1015.3
20260901211520 88 0.0 0.0 0.00 0.03 0.03 68 1015.3
20260901211436 88 0.0 0.0 0.00 0.03 0.03 68 1015.3
20260901211327 88 147 1.0 1.0 0.00 0.03 0.03 68 1015.3
20260901211223 89 146 1.0 1.0 0.00 0.03 0.03 67 1015.2
20260901211119 89 146 1.0 1.0 0.00 0.03 0.03 67 1015.2
20260901211030 89 145 1.0 2.0 0.00 0.03 0.03 68 1015.2
20260901210945 89 143 0.0 1.0 0.00 0.03 0.03 68 1015.2
20260901210821 89 144 1.0 2.0 0.00 0.03 0.03 66 1015.2
20260901210717 89 222 1.0 2.0 0.00 0.03 0.03 68 1015.4
20260901210628 89 224 0.0 1.0 0.00 0.03 0.03 68 1015.4
20260901210544 89 219 1.0 2.0 0.00 0.03 0.03 66 1015.4
20260901210419 89 212 1.0 1.0 0.00 0.03 0.03 68 1015.1
20260901210331 89 210 1.0 2.0 0.00 0.03 0.03 70 1015.2
20260901210226 89 170 0.0 1.0 0.00 0.03 0.03 71 1015.4
20260901210122 89 0.0 0.0 0.00 0.03 0.03 71 1015.2
20260901210018 89 0.0 0.0 0.00 0.03 0.03 70 1015.1
20260901205930 89 0.0 0.0 0.00 0.03 0.03 70 1015.3
20260901205905 88 0.0 0.0 0.00 0.03 0.03 70 1015.3
20260901205720 88 170 1.0 1.0 0.00 0.03 0.03 70 1015.3
20260901205636 88 169 0.0 1.0 0.00 0.03 0.03 71 1015.2
20260901205527 88 168 0.0 1.0 0.00 0.03 0.03 70 1015.1
20260901205423 88 168 1.0 1.0 0.00 0.03 0.03 70 1015.2
20260901205318 88 168 1.0 2.0 0.00 0.03 0.03 69 1015.3
20260901205230 88 207 1.0 2.0 0.00 0.03 0.03 70 1015.4
20260901205126 88 239 1.0 1.0 0.00 0.03 0.03 70 1015.3
20260901205021 88 237 0.0 1.0 0.00 0.03 0.03 69 1015.0
20260901204917 88 237 1.0 2.0 0.00 0.03 0.03 68 1015.1
20260901204848 88 235 1.0 2.0 0.00 0.03 0.03 70 1015.2
20260901204724 88 227 0.0 1.0 0.00 0.03 0.03 69 1015.2
20260901204619 88 228 0.0 1.0 0.00 0.03 0.03 68 1015.1
20260901204532 88 228 0.0 1.0 0.00 0.03 0.03 68 1015.2
20260901204428 87 228 1.0 1.0 0.00 0.03 0.03 67 1015.2
20260901204322 87 227 2.0 3.0 0.00 0.03 0.03 67 1015.1
20260901204218 88 181 1.0 2.0 0.00 0.03 0.03 67 1015.0
20260901204129 88 145 1.0 2.0 0.00 0.03 0.03 67 1015.2
20260901204025 88 153 2.0 3.0 0.00 0.03 0.03 67 1015.3
20260901203920 88 231 1.0 2.0 0.00 0.03 0.03 67 1015.1
20260901203816 88 251 1.0 1.0 0.00 0.03 0.03 68 1015.2
20260901203728 88 252 1.0 1.0 0.00 0.03 0.03 69 1015.1
20260901203623 88 258 0.0 1.0 0.00 0.03 0.03 68 1015.2
20260901203519 88 258 1.0 2.0 0.00 0.03 0.03 69 1015.3
20260901203430 88 247 2.0 4.0 0.00 0.03 0.03 69 1015.1
20260901203346 88 214 0.0 2.0 0.00 0.03 0.03 70 1015.2
20260901203222 88 261 0.0 1.0 0.00 0.03 0.03 70 1014.9
20260901203117 88 260 0.0 1.0 0.00 0.03 0.03 70 1015.1
20260901203029 88 260 1.0 2.0 0.00 0.03 0.03 68 1015.1
20260901202924 88 278 1.0 2.0 0.00 0.03 0.03 69 1015.4
20260901202820 88 314 0.0 1.0 0.00 0.03 0.03 69 1015.2
20260901202715 88 300 3.0 6.0 0.00 0.03 0.03 70 1015.2
20260901202627 87 301 2.0 6.0 0.00 0.03 0.03 70 1015.3
20260901202543 87 322 1.0 1.0 0.00 0.03 0.03 70 1015.5
20260901202438 87 322 0.0 1.0 0.00 0.03 0.03 68 1015.5
20260901202330 87 325 2.0 4.0 0.00 0.03 0.03 68 1015.2
20260901202226 87 239 1.0 2.0 0.00 0.03 0.03 69 1015.3
20260901202141 87 244 2.0 3.0 0.00 0.03 0.03 67 1015.3
20260901202017 87 175 1.0 2.0 0.00 0.03 0.03 68 1015.2
20260901201928 87 187 1.0 3.0 0.00 0.03 0.03 69 1015.3
20260901201824 87 212 2.0 3.0 0.00 0.03 0.03 68 1015.4
20260901201720 87 180 2.0 2.0 0.00 0.03 0.03 70 1015.4
20260901201615 87 209 0.0 2.0 0.00 0.03 0.03 69 1015.6
20260901201527 87 264 0.0 1.0 0.00 0.03 0.03 69 1015.4
20260901201422 87 270 0.0 1.0 0.00 0.03 0.03 67 1015.3
20260901201318 87 254 3.0 6.0 0.00 0.03 0.03 68 1015.3
20260901201230 87 187 2.0 3.0 0.00 0.03 0.03 67 1015.5
20260901201125 87 237 2.0 6.0 0.00 0.03 0.03 69 1015.4
20260901201021 87 210 1.0 2.0 0.00 0.03 0.03 70 1015.4
20260901200917 87 151 1.0 3.0 0.00 0.03 0.03 70 1015.3
20260901200828 87 230 1.0 2.0 0.00 0.03 0.03 69 1015.5
20260901200724 87 235 2.0 3.0 0.00 0.03 0.03 68 1015.5
20260901200620 87 320 2.0 3.0 0.00 0.03 0.03 68 1015.3
20260901200515 87 303 3.0 6.0 0.00 0.03 0.03 68 1015.7
20260901200427 87 253 2.0 3.0 0.00 0.03 0.03 68 1015.6
20260901200322 87 250 2.0 2.0 0.00 0.03 0.03 67 1015.5
20260901200218 87 248 2.0 3.0 0.00 0.03 0.03 67 1015.5
20260901200130 87 233 2.0 3.0 0.00 0.03 0.03 67 1015.6
20260901200025 87 239 3.0 6.0 0.00 0.03 0.03 67 1015.6
20260901195941 87 236 2.0 4.0 0.00 0.03 0.03 68 1015.6
20260901195816 87 235 2.0 4.0 0.00 0.03 0.03 68 1015.5
20260901195728 87 259 1.0 2.0 0.00 0.03 0.03 67 1015.5
20260901195623 87 250 3.0 4.0 0.00 0.03 0.03 67 1015.7
20260901195519 87 245 3.0 4.0 0.00 0.03 0.03 68 1015.4
20260901195430 87 282 2.0 3.0 0.00 0.03 0.03 68 1015.6
20260901195326 87 316 1.0 2.0 0.00 0.03 0.03 69 1015.3
20260901195221 87 314 1.0 2.0 0.00 0.03 0.03 69 1015.3
20260901195117 87 315 1.0 2.0 0.00 0.03 0.03 68 1015.4
20260901195028 87 311 2.0 3.0 0.00 0.03 0.03 68 1015.4
20260901194923 87 283 1.0 2.0 0.00 0.03 0.03 69 1015.3
20260901194819 87 248 1.0 2.0 0.00 0.03 0.03 69 1015.3
20260901194751 87 250 1.0 2.0 0.00 0.03 0.03 70 1015.4
20260901194626 87 250 1.0 2.0 0.00 0.03 0.03 71 1015.3
20260901194521 86 249 1.0 3.0 0.00 0.03 0.03 69 1015.3
20260901194417 86 241 1.0 3.0 0.00 0.03 0.03 72 1015.3
20260901194329 86 0.0 0.0 0.00 0.03 0.03 71 1015.4
20260901194224 86 183 1.0 2.0 0.00 0.03 0.03 72 1015.5
20260901194140 86 0.0 0.0 0.00 0.03 0.03 72 1015.6
20260901194015 86 152 0.0 1.0 0.00 0.03 0.03 72 1015.5
20260901193927 86 152 0.0 1.0 0.00 0.03 0.03 71 1015.5
20260901193823 86 152 1.0 2.0 0.00 0.03 0.03 71 1015.5
20260901193718 86 186 1.0 3.0 0.00 0.03 0.03 70 1015.5
20260901193630 86 169 1.0 2.0 0.00 0.03 0.03 70 1015.5
20260901193525 86 198 1.0 2.0 0.00 0.03 0.03 72 1015.4
20260901193501 86 235 1.0 2.0 0.00 0.03 0.03 72 1015.4
20260901193317 86 195 1.0 3.0 0.00 0.03 0.03 71 1015.3
20260901193228 86 236 1.0 2.0 0.00 0.03 0.03 71 1015.6
20260901193143 86 210 2.0 2.0 0.00 0.03 0.03 71 1015.6
20260901193019 86 163 1.0 1.0 0.00 0.03 0.03 72 1015.6
20260901192931 86 166 1.0 2.0 0.00 0.03 0.03 71 1015.5
20260901192826 86 168 1.0 1.0 0.00 0.03 0.03 72 1015.6
20260901192722 86 169 0.0 1.0 0.00 0.03 0.03 71 1015.5
20260901192617 86 169 0.0 1.0 0.00 0.03 0.03 70 1015.7
20260901192528 86 162 1.0 3.0 0.00 0.03 0.03 71 1015.5
20260901192423 86 200 1.0 2.0 0.00 0.03 0.03 70 1015.7
20260901192339 86 237 0.0 2.0 0.00 0.03 0.03 69 1015.8
20260901192231 86 242 2.0 3.0 0.00 0.03 0.03 68 1015.6
20260901192126 86 254 3.0 6.0 0.00 0.03 0.03 68 1015.8
20260901192022 86 229 4.0 4.0 0.00 0.03 0.03 68 1015.7
20260901191938 86 265 2.0 4.0 0.00 0.03 0.03 69 1015.8
20260901191828 86 283 3.0 7.0 0.00 0.03 0.03 70 1015.7
20260901191723 85 254 1.0 4.0 0.00 0.03 0.03 72 1015.7
20260901191619 85 148 0.0 1.0 0.00 0.03 0.03 72 1015.6
20260901191551 85 148 0.0 1.0 0.00 0.03 0.03 71 1015.7
20260901191426 85 148 0.0 1.0 0.00 0.03 0.03 72 1015.7
20260901191322 85 148 1.0 2.0 0.00 0.03 0.03 71 1015.7
20260901191237 85 146 1.0 2.0 0.00 0.03 0.03 71 1015.7
20260901191129 85 143 2.0 3.0 0.00 0.03 0.03 70 1015.6
20260901191044 85 148 2.0 2.0 0.00 0.03 0.03 72 1015.5
20260901190940 85 153 3.0 4.0 0.00 0.03 0.03 72 1015.6
20260901190815 85 176 2.0 3.0 0.00 0.03 0.03 72 1015.6
20260901190727 85 148 1.0 1.0 0.00 0.03 0.03 71 1015.7
20260901190643 85 168 1.0 3.0 0.00 0.03 0.03 71 1015.7
20260901190518 85 239 3.0 3.0 0.00 0.03 0.03 71 1015.6
20260901190430 85 236 1.0 2.0 0.00 0.03 0.03 71 1015.7
20260901190325 85 229 2.0 6.0 0.00 0.03 0.03 72 1015.7
20260901190221 85 166 1.0 2.0 0.00 0.03 0.03 73 1015.7
20260901190116 85 175 2.0 3.0 0.00 0.03 0.03 72 1015.8
20260901190028 85 215 1.0 3.0 0.00 0.03 0.03 72 1015.9
20260901185924 85 160 2.0 4.0 0.00 0.03 0.03 72 1016.0
20260901185839 84 247 3.0 3.0 0.00 0.03 0.03 71 1016.0
20260901185731 84 263 3.0 4.0 0.00 0.03 0.03 70 1015.9
20260901185627 84 244 3.0 6.0 0.00 0.03 0.03 70 1015.7
20260901185522 84 245 2.0 4.0 0.00 0.03 0.03 71 1015.6
20260901185438 84 244 1.0 3.0 0.00 0.03 0.03 71 1015.8
20260901185329 84 242 3.0 3.0 0.00 0.03 0.03 71 1015.9
20260901185245 84 226 2.0 3.0 0.00 0.03 0.03 72 1015.9
20260901185120 84 185 1.0 1.0 0.00 0.03 0.03 73 1015.6
20260901185027 84 191 2.0 2.0 0.00 0.03 0.03 73 1015.8
20260901184927 84 0.0 0.0 0.00 0.03 0.03 74 1015.7
20260901184822 84 221 1.0 2.0 0.00 0.03 0.03 74 1015.7
20260901184718 84 242 1.0 2.0 0.00 0.03 0.03 73 1015.5
20260901184650 84 244 2.0 4.0 0.00 0.03 0.03 74 1015.6
20260901184545 84 225 3.0 7.0 0.00 0.03 0.03 72 1015.5
20260901184421 84 254 2.0 4.0 0.00 0.03 0.03 73 1015.5
20260901184316 84 229 1.0 2.0 0.00 0.03 0.03 72 1015.6
20260901184228 84 236 2.0 4.0 0.00 0.03 0.03 71 1015.7
20260901184123 84 233 4.0 7.0 0.00 0.03 0.03 74 1015.8
20260901184039 83 235 1.0 4.0 0.00 0.03 0.03 73 1015.8
20260901183930 83 239 2.0 4.0 0.00 0.03 0.03 75 1015.7
20260901183826 83 212 1.0 2.0 0.00 0.03 0.03 76 1015.7
20260901183721 83 219 1.0 2.0 0.00 0.03 0.03 75 1015.7
20260901183617 83 239 3.0 4.0 0.00 0.03 0.03 75 1015.5
20260901183529 83 252 1.0 3.0 0.00 0.03 0.03 75 1015.5
20260901183425 83 191 2.0 2.0 0.00 0.03 0.03 75 1015.6
20260901183319 83 241 2.0 3.0 0.00 0.03 0.03 74 1015.6
20260901183215 83 258 2.0 2.0 0.00 0.03 0.03 74 1015.6
20260901183127 83 271 2.0 2.0 0.00 0.03 0.03 75 1015.8
20260901183022 83 253 2.0 4.0 0.00 0.03 0.03 75 1015.6
20260901182918 83 252 2.0 4.0 0.00 0.03 0.03 75 1015.6
20260901182830 83 252 3.0 4.0 0.00 0.03 0.03 76 1015.7
20260901182725 83 199 2.0 2.0 0.00 0.03 0.03 75 1015.7
20260901182621 83 161 1.0 2.0 0.00 0.03 0.03 76 1015.7
20260901182517 82 171 2.0 3.0 0.00 0.03 0.03 76 1015.7
20260901182428 82 149 2.0 3.0 0.00 0.03 0.03 75 1015.7
20260901182324 82 163 1.0 2.0 0.00 0.03 0.03 75 1015.7
20260901182219 82 169 1.0 2.0 0.00 0.03 0.03 75 1015.7
20260901182115 82 179 2.0 3.0 0.00 0.03 0.03 76 1015.8
20260901182027 82 174 3.0 4.0 0.00 0.03 0.03 76 1015.7
20260901181923 82 155 2.0 3.0 0.00 0.03 0.03 77 1015.7
20260901181818 82 154 1.0 2.0 0.00 0.03 0.03 76 1015.7
20260901181730 82 147 2.0 4.0 0.00 0.03 0.03 77 1015.6
20260901181625 82 159 2.0 6.0 0.00 0.03 0.03 77 1015.7
20260901181521 82 142 1.0 1.0 0.00 0.03 0.03 77 1015.7
20260901181416 82 146 2.0 3.0 0.00 0.03 0.03 77 1015.6
20260901181328 82 240 2.0 4.0 0.00 0.03 0.03 76 1015.5
20260901181243 82 208 3.0 8.0 0.00 0.03 0.03 76 1015.6
20260901181119 82 200 1.0 2.0 0.00 0.03 0.03 77 1015.6
20260901181111 82 209 2.0 3.0 0.00 0.03 0.03 77 1015.6
20260901180927 82 161 2.0 4.0 0.00 0.03 0.03 78 1015.8
20260901180822 82 205 1.0 2.0 0.00 0.03 0.03 79 1015.6
20260901180718 82 246 1.0 1.0 0.00 0.03 0.03 78 1015.8
20260901180629 82 253 2.0 3.0 0.00 0.03 0.03 78 1015.7
20260901180545 82 236 2.0 3.0 0.00 0.03 0.03 79 1015.7
20260901180420 82 230 1.0 1.0 0.00 0.03 0.03 78 1015.9
20260901180316 82 233 2.0 3.0 0.00 0.03 0.03 78 1015.7
20260901180228 82 246 2.0 3.0 0.00 0.03 0.03 78 1015.8
20260901180123 82 241 3.0 4.0 0.00 0.03 0.03 79 1015.8
20260901180019 82 240 1.0 2.0 0.00 0.03 0.03 80 1015.6
20260901175931 82 219 2.0 3.0 0.00 0.03 0.03 80 1015.8
20260901175846 82 171 2.0 2.0 0.00 0.03 0.03 81 1015.9
20260901175801 82 239 1.0 2.0 0.00 0.03 0.03 80 1015.9
20260901175637 82 239 2.0 3.0 0.00 0.03 0.03 80 1015.6
20260901175529 82 246 1.0 2.0 0.00 0.03 0.03 81 1015.8
20260901175424 82 248 2.0 4.0 0.00 0.03 0.03 80 1015.9
20260901175320 82 232 1.0 1.0 0.00 0.03 0.03 80 1015.9
20260901175215 82 228 1.0 3.0 0.00 0.03 0.03 81 1015.8
20260901175127 82 176 1.0 1.0 0.00 0.03 0.03 81 1015.9
20260901175023 81 175 1.0 3.0 0.00 0.03 0.03 81 1015.9
20260901174918 81 237 0.0 1.0 0.00 0.03 0.03 81 1015.9
20260901174830 81 237 1.0 2.0 0.00 0.03 0.03 83 1015.6
20260901174726 81 234 0.0 1.0 0.00 0.03 0.03 82 1015.8
20260901174621 81 234 0.0 1.0 0.00 0.03 0.03 83 1015.8
20260901174517 81 204 1.0 2.0 0.00 0.03 0.03 83 1015.8
20260901174428 81 144 0.0 1.0 0.00 0.03 0.03 84 1016.0
20260901174324 81 144 0.0 1.0 0.00 0.03 0.03 84 1015.9
20260901174220 81 143 1.0 2.0 0.00 0.03 0.03 84 1016.1
20260901174115 81 145 1.0 3.0 0.00 0.03 0.03 84 1016.0
20260901174027 81 150 1.0 1.0 0.00 0.03 0.03 84 1015.9
20260901173923 81 148 1.0 2.0 0.00 0.03 0.03 84 1016.0
20260901173818 80 148 0.0 1.0 0.00 0.03 0.03 84 1016.0
20260901173730 80 148 0.0 1.0 0.00 0.03 0.03 84 1015.9
20260901173705 80 131 0.0 1.0 0.00 0.03 0.03 83 1016.0
20260901173521 80 131 0.0 1.0 0.00 0.03 0.03 83 1016.0
20260901173417 80 131 1.0 2.0 0.00 0.03 0.03 84 1016.1
20260901173348 80 131 1.0 2.0 0.00 0.03 0.03 85 1016.0
20260901173244 80 129 0.0 1.0 0.00 0.03 0.03 85 1016.0
20260901173120 80 0.0 0.0 0.00 0.03 0.03 86 1016.2
20260901173015 80 129 0.0 1.0 0.00 0.03 0.03 86 1016.1
20260901172927 80 129 0.0 1.0 0.00 0.03 0.03 86 1016.2
20260901172823 80 129 0.0 1.0 0.00 0.03 0.03 85 1016.3
20260901172718 80 129 0.0 1.0 0.00 0.03 0.03 85 1016.4
20260901172629 80 129 0.0 1.0 0.00 0.03 0.03 86 1016.4
20260901172545 80 0.0 0.0 0.00 0.03 0.03 85 1016.5
20260901172421 80 0.0 0.0 0.00 0.03 0.03 85 1016.5
20260901172316 80 0.0 0.0 0.00 0.03 0.03 85 1016.5
20260901172228 80 0.0 0.0 0.00 0.03 0.03 85 1016.6
20260901172124 80 0.0 0.0 0.00 0.03 0.03 85 1016.6
20260901172019 80 0.0 0.0 0.00 0.03 0.03 85 1016.6
20260901171915 80 0.0 0.0 0.00 0.03 0.03 85 1016.5
20260901171827 79 0.0 0.0 0.00 0.03 0.03 85 1016.8
20260901171722 79 0.0 0.0 0.00 0.03 0.03 85 1016.9
20260901171618 79 0.0 0.0 0.00 0.03 0.03 85 1016.7
20260901171530 79 0.0 0.0 0.00 0.03 0.03 85 1016.8
20260901171425 79 0.0 0.0 0.00 0.03 0.03 85 1016.8
20260901171321 79 0.0 0.0 0.00 0.03 0.03 85 1016.8
20260901171236 79 0.0 0.0 0.00 0.03 0.03 85 1016.5
20260901171128 79 0.0 0.0 0.00 0.03 0.03 85 1016.7
20260901171103 79 129 0.0 1.0 0.00 0.03 0.03 85 1016.7
20260901170919 79 0.0 0.0 0.00 0.03 0.03 86 1016.7
20260901170851 79 129 0.0 1.0 0.00 0.03 0.03 85 1016.7
20260901170726 79 129 0.0 1.0 0.00 0.03 0.03 86 1016.7
20260901170621 79 129 1.0 2.0 0.00 0.03 0.03 86 1016.7
20260901170517 79 129 0.0 2.0 0.00 0.03 0.03 86 1016.8
20260901170509 79 0.0 0.0 0.00 0.03 0.03 87 1016.6
20260901170324 79 0.0 0.0 0.00 0.03 0.03 87 1016.6
20260901170220 79 0.0 0.0 0.00 0.03 0.03 87 1016.6
20260901170215 79 128 0.0 1.0 0.00 0.03 0.03 87 1016.6
20260901170027 78 0.0 0.0 0.01 0.03 0.03 87 1016.6
20260901165943 78 0.0 0.0 0.01 0.03 0.03 87 1016.6
20260901165838 78 0.0 0.0 0.01 0.03 0.03 87 1016.5
20260901165810 78 128 0.0 1.0 0.01 0.03 0.03 87 1016.5
20260901165626 78 128 1.0 1.0 0.01 0.03 0.03 87 1016.6
20260901165521 78 88 0.0 1.0 0.01 0.03 0.03 87 1016.5
20260901165417 78 0.0 0.0 0.01 0.03 0.03 87 1016.6
20260901165348 78 0.0 0.0 0.01 0.03 0.03 88 1016.6
20260901165224 78 88 0.0 1.0 0.01 0.03 0.03 88 1016.5
20260901165120 78 0.0 0.0 0.02 0.03 0.03 88 1016.6
20260901165015 78 0.0 0.0 0.02 0.03 0.03 88 1016.6
20260901164927 78 0.0 0.0 0.02 0.03 0.03 88 1016.6
20260901164823 78 88 0.0 1.0 0.02 0.03 0.03 88 1016.6
20260901164718 78 88 0.0 1.0 0.02 0.03 0.03 87 1016.7
20260901164629 78 88 1.0 1.0 0.02 0.03 0.03 87 1016.5
20260901164525 78 88 1.0 1.0 0.02 0.03 0.03 87 1016.6
20260901164421 78 88 0.0 1.0 0.02 0.03 0.03 87 1016.8
20260901164316 78 88 0.0 1.0 0.02 0.03 0.03 87 1016.7
20260901164228 78 88 0.0 1.0 0.02 0.03 0.03 87 1016.8
20260901164124 78 88 0.0 1.0 0.02 0.03 0.03 87 1016.9
20260901164019 78 88 0.0 1.0 0.02 0.03 0.03 87 1016.9
20260901163931 78 0.0 0.0 0.02 0.03 0.03 87 1016.7
20260901163826 78 0.0 0.0 0.02 0.03 0.03 87 1017.0
20260901163721 78 0.0 0.0 0.02 0.03 0.03 87 1016.8
20260901163616 78 88 0.0 1.0 0.03 0.03 0.03 87 1016.7
20260901163528 78 88 1.0 1.0 0.03 0.03 0.03 87 1016.7
20260901163427 78 88 1.0 1.0 0.03 0.03 0.03 87 1016.7
20260901163319 78 88 1.0 1.0 0.03 0.03 0.03 87 1016.6
20260901163215 78 88 1.0 1.0 0.03 0.03 0.03 87 1016.8
20260901163126 78 88 1.0 1.0 0.03 0.03 0.03 87 1016.9
20260901163102 78 88 1.0 1.0 0.03 0.03 0.03 87 1016.8
20260901162918 78 88 1.0 1.0 0.03 0.03 0.03 87 1016.8
20260901162829 78 88 1.0 2.0 0.03 0.03 0.03 87 1016.8
20260901162725 78 88 1.0 1.0 0.03 0.03 0.03 86 1017.1
20260901162621 78 88 0.0 1.0 0.03 0.03 0.03 86 1017.1
20260901162516 78 88 1.0 1.0 0.03 0.03 0.03 86 1017.1
20260901162428 78 88 1.0 1.0 0.03 0.03 0.03 86 1017.2
20260901162344 78 88 1.0 1.0 0.03 0.03 0.03 86 1017.2
20260901162219 78 88 0.0 1.0 0.03 0.03 0.03 86 1017.2
20260901162130 78 0.0 0.0 0.03 0.03 0.03 86 1017.3
20260901162026 78 88 0.0 1.0 0.03 0.03 0.03 86 1017.4
20260901161922 78 88 1.0 1.0 0.03 0.03 0.03 86 1017.5
20260901161818 78 0.0 0.0 0.03 0.03 0.03 86 1017.5
20260901161729 78 0.0 0.0 0.03 0.03 0.03 86 1017.6
20260901161625 78 0.0 0.0 0.03 0.03 0.03 86 1017.5
20260901161520 78 0.0 0.0 0.03 0.03 0.03 85 1017.5
20260901161416 78 0.0 0.0 0.03 0.03 0.03 85 1017.5
20260901161328 78 0.0 0.0 0.03 0.03 0.03 85 1017.5
20260901161223 78 88 0.0 1.0 0.03 0.03 0.03 85 1017.4
20260901161119 77 0.0 0.0 0.03 0.03 0.03 85 1017.5
20260901161031 77 0.0 0.0 0.03 0.03 0.03 85 1017.4
20260901160926 78 0.0 0.0 0.03 0.03 0.03 85 1017.5
20260901160821 78 0.0 0.0 0.03 0.03 0.03 85 1017.5
20260901160717 78 0.0 0.0 0.03 0.03 0.03 85 1017.6
20260901160628 78 88 0.0 1.0 0.03 0.03 0.03 84 1017.5
20260901160524 78 0.0 0.0 0.03 0.03 0.03 84 1017.5
20260901160440 78 88 0.0 1.0 0.03 0.03 0.03 84 1017.5
20260901160331 78 88 1.0 2.0 0.03 0.03 0.03 84 1017.4
20260901160227 78 88 1.0 1.0 0.03 0.03 0.03 84 1017.6
20260901160122 78 88 1.0 1.0 0.02 0.02 0.02 83 1017.6
20260901160018 78 88 1.0 1.0 0.02 0.02 0.02 82 1017.5
20260901155949 78 88 1.0 1.0 0.02 0.02 0.02 82 1017.4
20260901155825 78 88 1.0 2.0 0.02 0.02 0.02 82 1017.5
20260901155741 79 87 1.0 2.0 0.02 0.02 0.02 82 1017.5
20260901155616 79 87 1.0 2.0 0.02 0.02 0.02 82 1017.7
20260901155548 79 86 1.0 1.0 0.02 0.02 0.02 81 1017.8
20260901155423 79 86 1.0 1.0 0.02 0.02 0.02 81 1017.9
20260901155319 79 86 1.0 1.0 0.02 0.02 0.02 81 1017.7
20260901155231 79 0.0 0.0 0.02 0.02 0.02 81 1017.7
20260901155126 79 0.0 0.0 0.01 0.01 0.01 81 1018.0
20260901155041 79 0.0 0.0 0.01 0.01 0.01 81 1018.1
20260901154917 79 0.0 0.0 0.01 0.01 0.01 81 1018.0
20260901154829 79 0.0 0.0 0.01 0.01 0.01 81 1017.9
20260901154724 79 0.0 0.0 0.01 0.01 0.01 80 1017.9
20260901154619 79 0.0 0.0 0.01 0.01 0.01 80 1017.9
20260901154527 79 86 0.0 1.0 0.01 0.01 0.01 80 1017.7
20260901154322 79 86 0.0 1.0 0.01 0.01 0.01 80 1017.9
20260901154218 79 86 0.0 1.0 0.01 0.01 0.01 80 1017.9
20260901154130 79 86 0.0 1.0 0.01 0.01 0.01 79 1017.9
20260901154025 80 0.0 0.0 0.01 0.01 0.01 79 1018.0
20260901153921 80 86 1.0 1.0 0.01 0.01 0.01 79 1018.1
20260901153816 80 86 0.0 1.0 0.00 0.00 0.00 79 1017.9
20260901153728 80 0.0 0.0 0.00 0.00 0.00 79 1018.0
20260901153624 80 0.0 0.0 0.00 0.00 0.00 79 1018.0
20260901153539 80 0.0 0.0 0.00 0.00 0.00 79 1017.9
20260901153431 80 0.0 0.0 0.00 0.00 0.00 78 1018.0
20260901153327 80 0.0 0.0 0.00 0.00 0.00 78 1017.9
20260901153222 80 0.0 0.0 0.00 0.00 0.00 78 1018.0
20260901153117 80 0.0 0.0 0.00 0.00 0.00 78 1018.0
20260901153029 80 0.0 0.0 0.00 0.00 0.00 78 1018.0
20260901152925 80 0.0 0.0 0.00 0.00 0.00 78 1018.1
20260901152821 80 0.0 0.0 0.00 0.00 0.00 77 1018.2
20260901152716 81 83 1.0 3.0 0.00 0.00 0.00 77 1018.1
20260901152628 81 0.0 0.0 0.00 0.00 0.00 77 1018.2
20260901152523 81 317 1.0 1.0 0.00 0.00 0.00 77 1018.0
20260901152419 81 318 0.0 1.0 0.00 0.00 0.00 76 1018.0
20260901152330 81 317 1.0 1.0 0.00 0.00 0.00 76 1018.1
20260901152225 81 315 2.0 3.0 0.00 0.00 0.00 77 1018.4
20260901152121 81 319 1.0 3.0 0.00 0.00 0.00 77 1018.2
20260901152017 81 298 1.0 2.0 0.00 0.00 0.00 76 1018.2
20260901151928 81 298 2.0 3.0 0.00 0.00 0.00 75 1018.3
20260901151824 81 296 2.0 3.0 0.00 0.00 0.00 75 1018.3
20260901151720 81 296 2.0 3.0 0.00 0.00 0.00 75 1018.2
20260901151631 82 311 2.0 4.0 0.00 0.00 0.00 76 1018.0
20260901151527 82 261 2.0 4.0 0.00 0.00 0.00 77 1018.0
20260901151422 82 236 0.0 1.0 0.00 0.00 0.00 77 1017.8
20260901151318 82 0.0 0.0 0.00 0.00 0.00 76 1017.8
20260901151229 81 236 0.0 1.0 0.00 0.00 0.00 76 1018.0
20260901151124 81 0.0 0.0 0.00 0.00 0.00 76 1017.9
20260901151040 81 236 1.0 1.0 0.00 0.00 0.00 76 1017.7
20260901150915 81 236 0.0 1.0 0.00 0.00 0.00 78 1017.7
20260901150827 81 236 1.0 1.0 0.00 0.00 0.00 77 1017.8
20260901150722 81 236 1.0 1.0 0.00 0.00 0.00 78 1017.8
20260901150618 81 0.0 0.0 0.00 0.00 0.00 78 1017.9
20260901150530 81 237 0.0 1.0 0.00 0.00 0.00 78 1017.9
20260901150425 81 0.0 0.0 0.00 0.00 0.00 78 1017.8
20260901150341 81 237 0.0 1.0 0.00 0.00 0.00 77 1017.9
20260901150216 81 237 1.0 1.0 0.00 0.00 0.00 77 1017.9
20260901150128 81 237 1.0 1.0 0.00 0.00 0.00 77 1018.0
20260901150023 81 237 1.0 1.0 0.00 0.00 0.00 77 1018.0
20260901145939 81 237 1.0 1.0 0.00 0.00 0.00 77 1018.0
20260901145830 81 237 1.0 1.0 0.00 0.00 0.00 77 1017.9
20260901145725 81 237 0.0 1.0 0.00 0.00 0.00 78 1017.9
20260901145641 81 237 1.0 2.0 0.00 0.00 0.00 79 1017.9
20260901145517 80 237 1.0 2.0 0.00 0.00 0.00 79 1018.0
20260901145429 80 237 0.0 1.0 0.00 0.00 0.00 79 1018.1
20260901145324 80 237 0.0 1.0 0.00 0.00 0.00 79 1018.1
20260901145220 80 237 0.0 1.0 0.00 0.00 0.00 79 1017.9
20260901145115 80 237 0.0 1.0 0.00 0.00 0.00 80 1017.9
20260901145027 80 231 1.0 2.0 0.00 0.00 0.00 80 1017.9
20260901144922 80 0.0 0.0 0.00 0.00 0.00 81 1018.0
20260901144818 79 0.0 0.0 0.00 0.00 0.00 81 1018.0
20260901144730 79 226 0.0 1.0 0.00 0.00 0.00 81 1017.7
20260901144705 79 226 0.0 1.0 0.00 0.00 0.00 81 1017.8
20260901144541 79 0.0 0.0 0.00 0.00 0.00 81 1017.8
20260901144416 79 0.0 0.0 0.00 0.00 0.00 81 1017.8
20260901144408 79 226 0.0 1.0 0.00 0.00 0.00 81 1017.8
20260901144224 79 226 1.0 1.0 0.00 0.00 0.00 81 1017.8
20260901144119 79 226 1.0 1.0 0.00 0.00 0.00 81 1017.7
20260901144031 79 226 1.0 1.0 0.00 0.00 0.00 81 1017.6
20260901143927 79 225 0.0 1.0 0.00 0.00 0.00 80 1017.7
20260901143822 79 225 0.0 1.0 0.00 0.00 0.00 80 1017.6
20260901143738 79 225 1.0 1.0 0.00 0.00 0.00 81 1017.5
20260901143629 79 225 1.0 2.0 0.00 0.00 0.00 81 1017.7
20260901143525 78 0.0 0.0 0.00 0.00 0.00 81 1017.9
20260901143500 78 0.0 0.0 0.00 0.00 0.00 81 1017.9
20260901143316 78 0.0 0.0 0.00 0.00 0.00 81 1017.6
20260901143248 78 0.0 0.0 0.00 0.00 0.00 81 1017.7
20260901143124 78 0.0 0.0 0.00 0.00 0.00 81 1017.5
20260901143019 78 0.0 0.0 0.00 0.00 0.00 81 1017.5
20260901142931 78 229 1.0 1.0 0.00 0.00 0.00 81 1017.5
20260901142826 78 229 1.0 1.0 0.00 0.00 0.00 80 1017.6
20260901142722 78 229 1.0 2.0 0.00 0.00 0.00 81 1017.6
20260901142618 78 229 1.0 1.0 0.00 0.00 0.00 80 1017.6
20260901142529 78 229 0.0 1.0 0.00 0.00 0.00 81 1017.6
20260901142424 78 229 0.0 1.0 0.00 0.00 0.00 81 1017.7
20260901142340 78 229 1.0 1.0 0.00 0.00 0.00 81 1017.8
20260901142216 78 229 1.0 1.0 0.00 0.00 0.00 81 1017.5
20260901142128 78 0.0 0.0 0.00 0.00 0.00 81 1017.6
20260901142043 78 229 1.0 2.0 0.00 0.00 0.00 81 1017.7
20260901141919 78 229 1.0 1.0 0.00 0.00 0.00 81 1017.6
20260901141830 78 229 1.0 1.0 0.00 0.00 0.00 81 1017.5
20260901141725 79 229 0.0 1.0 0.00 0.00 0.00 80 1017.5
20260901141621 79 229 1.0 1.0 0.00 0.00 0.00 80 1017.5
20260901141517 79 229 0.0 1.0 0.00 0.00 0.00 80 1017.6
20260901141449 79 229 0.0 2.0 0.00 0.00 0.00 80 1017.5
20260901141324 79 237 0.0 1.0 0.00 0.00 0.00 81 1017.4
20260901141219 79 0.0 0.0 0.00 0.00 0.00 81 1017.4
20260901141211 79 237 1.0 2.0 0.00 0.00 0.00 81 1017.4
20260901141027 79 236 0.0 2.0 0.00 0.00 0.00 82 1017.6
20260901140922 79 0.0 0.0 0.00 0.00 0.00 82 1017.5
20260901140837 78 237 0.0 1.0 0.00 0.00 0.00 82 1017.6
20260901140729 78 237 0.0 1.0 0.00 0.00 0.00 82 1017.5
20260901140625 78 237 0.0 1.0 0.00 0.00 0.00 82 1017.4
20260901140520 78 237 1.0 1.0 0.00 0.00 0.00 82 1017.4
20260901140416 78 236 0.0 1.0 0.00 0.00 0.00 82 1017.2
20260901140327 78 237 0.0 1.0 0.00 0.00 0.00 82 1017.2
20260901140223 78 237 1.0 2.0 0.00 0.00 0.00 82 1017.3
20260901140138 78 0.0 0.0 0.00 0.00 0.00 82 1017.4
20260901140030 78 0.0 0.0 0.00 0.00 0.00 82 1017.4
20260901135925 78 236 0.0 1.0 0.00 0.00 0.00 82 1017.4
20260901135821 78 236 0.0 1.0 0.00 0.00 0.00 82 1017.4
20260901135717 78 236 1.0 1.0 0.00 0.00 0.00 81 1017.2
20260901135628 78 236 1.0 1.0 0.00 0.00 0.00 81 1017.3
20260901135524 78 236 0.0 1.0 0.00 0.00 0.00 82 1017.4
20260901135420 78 236 1.0 1.0 0.00 0.00 0.00 82 1017.4
20260901135315 78 237 1.0 1.0 0.00 0.00 0.00 82 1017.3
20260901135227 78 237 1.0 2.0 0.00 0.00 0.00 82 1017.4
20260901135122 78 237 0.0 1.0 0.00 0.00 0.00 82 1017.5
20260901135018 78 0.0 0.0 0.00 0.00 0.00 82 1017.5
20260901134929 78 237 1.0 2.0 0.00 0.00 0.00 82 1017.6
20260901134825 78 236 1.0 2.0 0.00 0.00 0.00 82 1017.6
20260901134720 78 235 1.0 1.0 0.00 0.00 0.00 82 1017.4
20260901134616 78 235 1.0 1.0 0.00 0.00 0.00 82 1017.4
20260901134528 78 235 1.0 2.0 0.00 0.00 0.00 83 1017.6
20260901134423 78 235 2.0 2.0 0.00 0.00 0.00 83 1017.6
20260901134319 78 235 1.0 1.0 0.00 0.00 0.00 83 1017.6
20260901134230 77 235 0.0 1.0 0.00 0.00 0.00 83 1017.6
20260901134126 77 0.0 0.0 0.00 0.00 0.00 84 1017.7
20260901134022 77 235 0.0 1.0 0.00 0.00 0.00 83 1017.7
20260901133917 77 235 0.0 1.0 0.00 0.00 0.00 83 1017.6
20260901133909 77 236 1.0 2.0 0.00 0.00 0.00 83 1017.4
20260901133725 77 184 1.0 2.0 0.00 0.00 0.00 84 1017.4
20260901133640 77 0.0 0.0 0.00 0.00 0.00 84 1017.4
20260901133516 77 0.0 0.0 0.00 0.00 0.00 84 1017.6
20260901133427 77 150 0.0 1.0 0.00 0.00 0.00 84 1017.4
20260901133323 77 150 1.0 2.0 0.00 0.00 0.00 84 1017.4
20260901133219 77 150 2.0 3.0 0.00 0.00 0.00 85 1017.5
20260901133130 77 249 0.0 1.0 0.00 0.00 0.00 85 1017.5
20260901133026 77 255 0.0 1.0 0.00 0.00 0.00 85 1017.5
20260901132921 77 255 0.0 1.0 0.00 0.00 0.00 85 1017.5
20260901132817 77 255 1.0 2.0 0.00 0.00 0.00 85 1017.6
20260901132728 76 231 1.0 2.0 0.00 0.00 0.00 85 1017.6
20260901132623 76 231 1.0 1.0 0.00 0.00 0.00 85 1017.6
20260901132519 76 231 0.0 1.0 0.00 0.00 0.00 85 1017.5
20260901132431 76 231 1.0 1.0 0.00 0.00 0.00 85 1017.7
20260901132327 76 231 0.0 1.0 0.00 0.00 0.00 85 1017.7
20260901132222 76 231 1.0 1.0 0.00 0.00 0.00 85 1017.7
20260901132137 76 231 2.0 2.0 0.00 0.00 0.00 85 1017.6
20260901132029 76 231 1.0 2.0 0.00 0.00 0.00 85 1017.6
20260901131925 76 0.0 0.0 0.00 0.00 0.00 85 1017.7
20260901131920 76 231 1.0 2.0 0.00 0.00 0.00 85 1017.8
20260901131716 76 0.0 0.0 0.00 0.00 0.00 85 1017.6
20260901131628 76 231 0.0 1.0 0.00 0.00 0.00 85 1017.7
20260901131523 76 231 1.0 1.0 0.00 0.00 0.00 85 1017.7
20260901131419 76 231 1.0 1.0 0.00 0.00 0.00 85 1017.7
20260901131330 76 231 0.0 1.0 0.00 0.00 0.00 85 1017.6
20260901131226 76 193 1.0 2.0 0.00 0.00 0.00 85 1017.6
20260901131121 76 148 1.0 2.0 0.00 0.00 0.00 85 1017.6
20260901131016 76 148 1.0 2.0 0.00 0.00 0.00 86 1017.6
20260901130928 76 147 0.0 1.0 0.00 0.00 0.00 86 1017.6
20260901130824 76 148 1.0 2.0 0.00 0.00 0.00 86 1017.7
20260901130719 76 148 1.0 2.0 0.00 0.00 0.00 86 1017.6
20260901130615 76 147 0.0 1.0 0.00 0.00 0.00 86 1017.7
20260901130547 76 147 1.0 2.0 0.00 0.00 0.00 86 1017.6
20260901130422 75 147 0.0 1.0 0.00 0.00 0.00 86 1017.6
20260901130318 75 0.0 0.0 0.00 0.00 0.00 86 1017.6
20260901130229 75 148 0.0 1.0 0.00 0.00 0.00 86 1017.6
20260901130125 75 148 1.0 2.0 0.00 0.00 0.00 86 1017.9
20260901130020 75 148 1.0 2.0 0.00 0.00 0.00 86 1017.7
20260901125916 75 147 2.0 2.0 0.00 0.00 0.00 86 1017.7
20260901125828 75 142 1.0 2.0 0.00 0.00 0.00 86 1017.7
20260901125723 75 141 1.0 1.0 0.00 0.00 0.00 86 1017.6
20260901125619 75 141 1.0 1.0 0.00 0.00 0.00 86 1017.7
20260901125531 75 141 0.0 1.0 0.00 0.00 0.00 86 1017.7
20260901125446 75 141 0.0 1.0 0.00 0.00 0.00 86 1017.7
20260901125321 75 0.0 0.0 0.00 0.00 0.00 86 1017.6
20260901125217 75 0.0 0.0 0.00 0.00 0.00 86 1017.7
20260901125129 75 141 0.0 1.0 0.00 0.00 0.00 86 1017.6
20260901125024 75 141 0.0 1.0 0.00 0.00 0.00 86 1017.7
20260901125000 75 141 1.0 1.0 0.00 0.00 0.00 86 1017.7
20260901124815 75 141 1.0 1.0 0.00 0.00 0.00 86 1017.8
20260901124727 75 141 0.0 1.0 0.00 0.00 0.00 86 1017.7
20260901124623 75 0.0 0.0 0.00 0.00 0.00 86 1017.7
20260901124518 75 0.0 0.0 0.00 0.00 0.00 86 1017.9
20260901124430 75 141 0.0 1.0 0.00 0.00 0.00 86 1017.9
20260901124325 75 141 1.0 1.0 0.00 0.00 0.00 87 1017.9
20260901124221 75 141 1.0 1.0 0.00 0.00 0.00 87 1017.9
20260901124116 75 0.0 0.0 0.00 0.00 0.00 87 1017.9
20260901124028 75 0.0 0.0 0.00 0.00 0.00 87 1017.9
20260901123924 75 0.0 0.0 0.00 0.00 0.00 87 1018.0
20260901123819 75 0.0 0.0 0.00 0.00 0.00 87 1018.0
20260901123731 75 0.0 0.0 0.00 0.00 0.00 87 1017.7
20260901123626 75 0.0 0.0 0.00 0.00 0.00 87 1018.0
20260901123522 74 0.0 0.0 0.00 0.00 0.00 87 1018.0
20260901123417 74 0.0 0.0 0.00 0.00 0.00 87 1017.7
20260901123329 74 0.0 0.0 0.00 0.00 0.00 87 1017.9
20260901123225 74 0.0 0.0 0.00 0.00 0.00 87 1017.9
20260901123120 74 0.0 0.0 0.00 0.00 0.00 88 1017.9
20260901123016 74 0.0 0.0 0.00 0.00 0.00 88 1017.6
20260901122927 74 141 1.0 1.0 0.00 0.00 0.00 88 1017.6
20260901122823 74 140 1.0 1.0 0.00 0.00 0.00 88 1017.7
20260901122759 74 140 0.0 1.0 0.00 0.00 0.00 88 1017.7
20260901122630 74 140 1.0 1.0 0.00 0.00 0.00 88 1017.6
20260901122526 74 140 1.0 1.0 0.00 0.00 0.00 88 1017.7
20260901122421 74 141 0.0 1.0 0.00 0.00 0.00 88 1017.7
20260901122317 74 0.0 0.0 0.00 0.00 0.00 89 1017.5
20260901122229 74 0.0 0.0 0.00 0.00 0.00 89 1017.7
20260901122124 73 140 0.0 1.0 0.00 0.00 0.00 89 1017.8
20260901122019 73 0.0 0.0 0.00 0.00 0.00 89 1017.6
20260901121915 73 0.0 0.0 0.00 0.00 0.00 89 1017.7
20260901121827 73 0.0 0.0 0.00 0.00 0.00 89 1017.6
20260901121722 73 0.0 0.0 0.00 0.00 0.00 89 1017.8
20260901121618 73 140 1.0 1.0 0.00 0.00 0.00 89 1017.8
20260901121530 73 140 1.0 1.0 0.00 0.00 0.00 89 1017.6
20260901121425 73 140 1.0 1.0 0.00 0.00 0.00 89 1017.6
20260901121321 73 140 0.0 1.0 0.00 0.00 0.00 89 1017.6
20260901121216 73 0.0 0.0 0.00 0.00 0.00 89 1017.8
20260901121148 73 0.0 0.0 0.00 0.00 0.00 89 1017.6
20260901121024 73 0.0 0.0 0.00 0.00 0.00 89 1017.7
20260901120919 73 0.0 0.0 0.00 0.00 0.00 89 1017.7
20260901120831 73 0.0 0.0 0.00 0.00 0.00 89 1017.6
20260901120726 73 0.0 0.0 0.00 0.00 0.00 90 1017.7
20260901120621 72 140 0.0 1.0 0.00 0.00 0.00 90 1017.7
20260901120517 72 140 0.0 1.0 0.00 0.00 0.00 89 1017.7
20260901120429 72 140 0.0 1.0 0.00 0.00 0.00 89 1017.8
20260901120324 72 0.0 0.0 0.00 0.00 0.00 89 1017.7
20260901120220 72 0.0 0.0 0.00 0.00 0.00 89 1017.6
20260901120135 72 140 0.0 1.0 0.00 0.00 0.00 89 1017.7
20260901120027 72 140 0.0 1.0 0.00 0.00 0.00 90 1017.5
20260901115922 72 140 1.0 1.0 0.00 0.00 0.00 89 1017.5
20260901115818 72 0.0 0.0 0.00 0.00 0.00 89 1017.5
20260901115729 72 0.0 0.0 0.00 0.00 0.00 89 1017.6
20260901115625 72 0.0 0.0 0.00 0.00 0.00 89 1017.6
20260901115521 72 140 0.0 1.0 0.00 0.00 0.00 89 1017.6
20260901115416 72 140 0.0 1.0 0.00 0.00 0.00 89 1017.6
20260901115348 72 140 1.0 1.0 0.00 0.00 0.00 89 1017.5
20260901115223 72 140 1.0 1.0 0.00 0.00 0.00 89 1017.6
20260901115119 72 140 1.0 1.0 0.00 0.00 0.00 89 1017.6
20260901115030 72 140 1.0 1.0 0.00 0.00 0.00 89 1017.5
20260901114925 72 140 1.0 2.0 0.00 0.00 0.00 89 1017.6
20260901114821 72 140 0.0 1.0 0.00 0.00 0.00 88 1017.6
20260901114729 72 140 0.0 1.0 0.00 0.00 0.00 89 1017.7
20260901114523 72 0.0 0.0 0.00 0.00 0.00 89 1017.7
20260901114419 72 140 0.0 1.0 0.00 0.00 0.00 89 1017.7
20260901114331 72 140 0.0 1.0 0.00 0.00 0.00 89 1017.5
20260901114226 72 140 0.0 1.0 0.00 0.00 0.00 89 1017.7
20260901114122 72 0.0 0.0 0.00 0.00 0.00 89 1017.7
20260901114017 72 0.0 0.0 0.00 0.00 0.00 90 1017.6
20260901113929 72 140 0.0 1.0 0.00 0.00 0.00 90 1017.6
20260901113824 72 140 1.0 1.0 0.00 0.00 0.00 89 1017.5
20260901113720 72 140 1.0 1.0 0.00 0.00 0.00 88 1017.5
20260901113636 72 140 0.0 1.0 0.00 0.00 0.00 88 1017.6
20260901113527 72 140 0.0 1.0 0.00 0.00 0.00 88 1017.7
20260901113423 72 140 0.0 1.0 0.00 0.00 0.00 88 1017.7
20260901113318 72 0.0 0.0 0.00 0.00 0.00 88 1017.8
20260901113310 72 140 0.0 1.0 0.00 0.00 0.00 88 1017.7
20260901113146 72 140 0.0 1.0 0.00 0.00 0.00 88 1017.8
20260901113021 72 140 1.0 1.0 0.00 0.00 0.00 88 1017.9
20260901112937 72 140 1.0 1.0 0.00 0.00 0.00 88 1018.0
20260901112828 72 140 0.0 1.0 0.00 0.00 0.00 88 1017.9
20260901112744 72 0.0 0.0 0.00 0.00 0.00 88 1017.7
20260901112619 71 0.0 0.0 0.00 0.00 0.00 89 1017.8
20260901112531 72 140 1.0 1.0 0.00 0.00 0.00 88 1017.9
20260901112427 71 140 1.0 1.0 0.00 0.00 0.00 88 1018.1
20260901112322 71 0.0 0.0 0.00 0.00 0.00 89 1018.1
20260901112238 72 140 0.0 1.0 0.00 0.00 0.00 89 1017.9
20260901112129 72 140 1.0 1.0 0.00 0.00 0.00 89 1018.0
20260901112025 71 141 1.0 2.0 0.00 0.00 0.00 88 1018.1
20260901111921 71 140 1.0 1.0 0.00 0.00 0.00 87 1018.1
20260901111816 71 0.0 0.0 0.00 0.00 0.00 87 1017.9
20260901111728 71 0.0 0.0 0.00 0.00 0.00 87 1018.0
20260901111624 71 0.0 0.0 0.00 0.00 0.00 87 1017.9
20260901111519 71 0.0 0.0 0.00 0.00 0.00 87 1018.0
20260901111431 71 0.0 0.0 0.00 0.00 0.00 88 1017.9
20260901111325 71 0.0 0.0 0.00 0.00 0.00 89 1017.8
20260901111221 71 139 1.0 2.0 0.00 0.00 0.00 89 1017.7
20260901111116 71 141 2.0 2.0 0.00 0.00 0.00 88 1017.8
20260901111028 71 144 0.0 1.0 0.00 0.00 0.00 87 1017.9
20260901110924 71 0.0 0.0 0.00 0.00 0.00 86 1018.1
20260901110819 71 0.0 0.0 0.00 0.00 0.00 86 1018.1
20260901110715 71 0.0 0.0 0.00 0.00 0.00 86 1018.0
20260901110627 71 0.0 0.0 0.00 0.00 0.00 86 1018.0
20260901110522 71 0.0 0.0 0.00 0.00 0.00 86 1018.0
20260901110418 71 0.0 0.0 0.00 0.00 0.00 86 1017.9
20260901110329 71 0.0 0.0 0.00 0.00 0.00 86 1018.0
20260901110245 71 0.0 0.0 0.00 0.00 0.00 86 1018.0
20260901110121 71 0.0 0.0 0.00 0.00 0.00 86 1017.9
20260901110016 71 0.0 0.0 0.00 0.00 0.00 86 1018.0
20260901105928 71 0.0 0.0 0.00 0.00 0.00 86 1018.0
20260901105823 71 0.0 0.0 0.00 0.00 0.00 86 1018.0
20260901105719 71 0.0 0.0 0.00 0.00 0.00 87 1017.8
20260901105631 71 0.0 0.0 0.00 0.00 0.00 87 1017.9
20260901105526 71 144 0.0 1.0 0.00 0.00 0.00 87 1018.0
20260901105421 71 0.0 0.0 0.00 0.00 0.00 86 1017.9
20260901105317 71 144 0.0 1.0 0.00 0.00 0.00 87 1018.1
20260901105248 71 144 0.0 1.0 0.00 0.00 0.00 87 1018.0
20260901105124 71 0.0 0.0 0.00 0.00 0.00 87 1018.0
20260901105020 71 0.0 0.0 0.00 0.00 0.00 86 1017.9
20260901104915 71 0.0 0.0 0.00 0.00 0.00 86 1017.9
20260901104827 71 0.0 0.0 0.00 0.00 0.00 86 1018.1
20260901104722 71 0.0 0.0 0.00 0.00 0.00 87 1017.9
20260901104618 71 0.0 0.0 0.00 0.00 0.00 87 1017.9
20260901104550 71 144 0.0 1.0 0.00 0.00 0.00 86 1018.1
20260901104445 71 0.0 0.0 0.00 0.00 0.00 86 1017.8
20260901104341 71 0.0 0.0 0.00 0.00 0.00 86 1017.8
20260901104236 71 0.0 0.0 0.00 0.00 0.00 86 1017.9
20260901104128 71 0.0 0.0 0.00 0.00 0.00 86 1017.9
20260901104023 71 0.0 0.0 0.00 0.00 0.00 86 1017.8
20260901103919 71 144 0.0 1.0 0.00 0.00 0.00 86 1017.8
20260901103831 71 144 0.0 1.0 0.00 0.00 0.00 86 1017.9
20260901103726 71 0.0 0.0 0.00 0.00 0.00 86 1018.0
20260901103622 71 0.0 0.0 0.00 0.00 0.00 86 1018.0
20260901103517 71 0.0 0.0 0.00 0.00 0.00 86 1017.9
20260901103429 71 0.0 0.0 0.00 0.00 0.00 86 1017.7
20260901103325 71 0.0 0.0 0.00 0.00 0.00 87 1017.7
20260901103221 71 0.0 0.0 0.00 0.00 0.00 87 1017.6
20260901103116 71 0.0 0.0 0.00 0.00 0.00 87 1017.7
20260901103028 71 144 0.0 1.0 0.00 0.00 0.00 87 1017.8
20260901102943 71 144 0.0 1.0 0.00 0.00 0.00 86 1017.8
20260901102839 71 0.0 0.0 0.00 0.00 0.00 86 1017.7
20260901102731 71 0.0 0.0 0.00 0.00 0.00 86 1017.8
20260901102626 71 0.0 0.0 0.00 0.00 0.00 86 1017.8
20260901102542 71 0.0 0.0 0.00 0.00 0.00 85 1017.8
20260901102417 71 0.0 0.0 0.00 0.00 0.00 85 1017.8
20260901102329 71 0.0 0.0 0.00 0.00 0.00 85 1017.9
20260901102306 71 0.0 0.0 0.00 0.00 0.00 85 1017.9
20260901102120 71 0.0 0.0 0.00 0.00 0.00 85 1017.6
20260901102016 71 0.0 0.0 0.00 0.00 0.00 86 1017.7
20260901101927 71 0.0 0.0 0.00 0.00 0.00 86 1017.7
20260901101823 71 0.0 0.0 0.00 0.00 0.00 86 1017.7
20260901101718 71 0.0 0.0 0.00 0.00 0.00 86 1017.6
20260901101630 71 0.0 0.0 0.00 0.00 0.00 86 1017.7
20260901101525 71 144 0.0 1.0 0.00 0.00 0.00 86 1017.8
20260901101421 71 0.0 0.0 0.00 0.00 0.00 86 1017.6
20260901101316 71 144 0.0 1.0 0.00 0.00 0.00 86 1017.6
20260901101227 71 144 0.0 1.0 0.00 0.00 0.00 86 1017.6
20260901101202 71 144 0.0 1.0 0.00 0.00 0.00 86 1017.5
20260901101018 71 144 1.0 1.0 0.00 0.00 0.00 86 1017.5
20260901100949 71 144 0.0 1.0 0.00 0.00 0.00 85 1017.7
20260901100825 71 0.0 0.0 0.00 0.00 0.00 85 1017.7
20260901100721 71 0.0 0.0 0.00 0.00 0.00 85 1017.7
20260901100616 71 0.0 0.0 0.00 0.00 0.00 85 1017.8
20260901100528 71 0.0 0.0 0.00 0.00 0.00 85 1017.9
20260901100424 71 0.0 0.0 0.00 0.00 0.00 85 1017.7
20260901100319 71 0.0 0.0 0.00 0.00 0.00 85 1017.8
20260901100231 71 0.0 0.0 0.00 0.00 0.00 85 1017.7
20260901100126 71 0.0 0.0 0.00 0.00 0.00 86 1017.7
20260901100041 71 144 0.0 1.0 0.00 0.00 0.00 86 1017.7
20260901095917 71 0.0 0.0 0.00 0.00 0.00 85 1017.7
20260901095848 71 0.0 0.0 0.00 0.00 0.00 85 1017.7
20260901095724 71 0.0 0.0 0.00 0.00 0.00 85 1017.7
20260901095620 71 0.0 0.0 0.00 0.00 0.00 85 1017.6
20260901095515 71 0.0 0.0 0.00 0.00 0.00 85 1017.8
20260901095427 71 0.0 0.0 0.00 0.00 0.00 85 1017.8
20260901095322 71 0.0 0.0 0.00 0.00 0.00 85 1017.6
20260901095218 71 0.0 0.0 0.00 0.00 0.00 85 1017.9
20260901095130 71 0.0 0.0 0.00 0.00 0.00 85 1017.6
20260901095025 71 0.0 0.0 0.00 0.00 0.00 85 1017.7
20260901095001 71 0.0 0.0 0.00 0.00 0.00 85 1017.7
20260901094816 71 0.0 0.0 0.00 0.00 0.00 85 1017.8
20260901094728 71 0.0 0.0 0.00 0.00 0.00 85 1017.8
20260901094624 71 0.0 0.0 0.00 0.00 0.00 85 1017.7
20260901094519 71 0.0 0.0 0.00 0.00 0.00 85 1017.7
20260901094431 71 0.0 0.0 0.00 0.00 0.00 85 1017.6
20260901094326 71 0.0 0.0 0.00 0.00 0.00 85 1017.7
20260901094222 71 0.0 0.0 0.00 0.00 0.00 85 1017.7
20260901094118 71 0.0 0.0 0.00 0.00 0.00 85 1017.6
20260901094029 71 0.0 0.0 0.00 0.00 0.00 85 1017.7
20260901093945 71 0.0 0.0 0.00 0.00 0.00 85 1017.7
20260901093820 71 0.0 0.0 0.00 0.00 0.00 85 1017.5
20260901093716 71 0.0 0.0 0.00 0.00 0.00 85 1017.8
20260901093628 71 0.0 0.0 0.00 0.00 0.00 85 1017.8
20260901093523 71 0.0 0.0 0.00 0.00 0.00 85 1017.6
20260901093439 71 0.0 0.0 0.00 0.00 0.00 86 1017.6
20260901093330 71 0.0 0.0 0.00 0.00 0.00 85 1017.7
20260901093226 71 144 0.0 1.0 0.00 0.00 0.00 85 1017.6
20260901093121 71 144 0.0 1.0 0.00 0.00 0.00 85 1017.6
20260901093017 71 0.0 0.0 0.00 0.00 0.00 85 1017.8
20260901092948 71 0.0 0.0 0.00 0.00 0.00 86 1017.8
20260901092824 71 0.0 0.0 0.00 0.00 0.00 86 1017.8
20260901092720 71 0.0 0.0 0.00 0.00 0.00 86 1017.8
20260901092615 71 0.0 0.0 0.00 0.00 0.00 86 1017.8
20260901092527 71 144 0.0 1.0 0.00 0.00 0.00 85 1017.8
20260901092422 71 0.0 0.0 0.00 0.00 0.00 84 1017.8
20260901092318 71 0.0 0.0 0.00 0.00 0.00 85 1018.0
20260901092230 71 0.0 0.0 0.00 0.00 0.00 85 1017.8
20260901092125 71 0.0 0.0 0.00 0.00 0.00 85 1017.9
20260901092021 71 0.0 0.0 0.00 0.00 0.00 85 1018.0
20260901091916 71 0.0 0.0 0.00 0.00 0.00 85 1017.8
20260901091827 71 144 0.0 1.0 0.00 0.00 0.00 85 1017.7
20260901091723 71 0.0 0.0 0.00 0.00 0.00 85 1017.7
20260901091618 71 0.0 0.0 0.00 0.00 0.00 84 1017.7
20260901091529 71 0.0 0.0 0.00 0.00 0.00 84 1017.8
20260901091425 71 0.0 0.0 0.00 0.00 0.00 84 1017.8
20260901091321 71 0.0 0.0 0.00 0.00 0.00 84 1017.8
20260901091216 71 0.0 0.0 0.00 0.00 0.00 84 1017.9
20260901091128 71 0.0 0.0 0.00 0.00 0.00 84 1017.9
20260901091023 71 0.0 0.0 0.00 0.00 0.00 84 1017.9
20260901090939 71 0.0 0.0 0.00 0.00 0.00 84 1017.9
20260901090831 71 0.0 0.0 0.00 0.00 0.00 84 1017.9
20260901090726 71 0.0 0.0 0.00 0.00 0.00 84 1017.9
20260901090621 71 0.0 0.0 0.00 0.00 0.00 84 1017.9
20260901090517 71 0.0 0.0 0.00 0.00 0.00 84 1017.9
20260901090429 71 0.0 0.0 0.00 0.00 0.00 85 1017.8
20260901090324 71 0.0 0.0 0.00 0.00 0.00 85 1017.9
20260901090220 71 0.0 0.0 0.00 0.00 0.00 85 1017.8
20260901090115 71 0.0 0.0 0.00 0.00 0.00 85 1017.8
20260901090027 71 0.0 0.0 0.00 0.00 0.00 85 1017.8
20260901085943 72 0.0 0.0 0.00 0.00 0.00 85 1017.9
20260901085818 71 0.0 0.0 0.00 0.00 0.00 85 1017.9
20260901085730 72 0.0 0.0 0.00 0.00 0.00 85 1017.8
20260901085625 72 0.0 0.0 0.00 0.00 0.00 85 1018.0
20260901085521 72 0.0 0.0 0.00 0.00 0.00 84 1018.0
20260901085417 72 0.0 0.0 0.00 0.00 0.00 84 1018.0
20260901085328 71 0.0 0.0 0.00 0.00 0.00 84 1018.0
20260901085224 71 0.0 0.0 0.00 0.00 0.00 84 1018.0
20260901085119 72 0.0 0.0 0.00 0.00 0.00 84 1017.8
20260901085031 72 0.0 0.0 0.00 0.00 0.00 84 1018.1
20260901084927 72 0.0 0.0 0.00 0.00 0.00 84 1017.8
20260901084822 72 0.0 0.0 0.00 0.00 0.00 84 1018.1
20260901084718 72 0.0 0.0 0.00 0.00 0.00 84 1018.2
20260901084629 72 0.0 0.0 0.00 0.00 0.00 84 1018.1
20260901084525 72 0.0 0.0 0.00 0.00 0.00 84 1018.0
20260901084420 72 0.0 0.0 0.00 0.00 0.00 84 1018.0
20260901084316 72 0.0 0.0 0.00 0.00 0.00 84 1018.0
20260901084228 72 0.0 0.0 0.00 0.00 0.00 85 1018.2
20260901084123 72 0.0 0.0 0.00 0.00 0.00 85 1018.2
20260901084039 72 0.0 0.0 0.00 0.00 0.00 85 1018.1
20260901083931 72 0.0 0.0 0.00 0.00 0.00 85 1018.1
20260901083826 72 0.0 0.0 0.00 0.00 0.00 85 1018.1
20260901083721 72 144 0.0 1.0 0.00 0.00 0.00 85 1018.2
20260901083617 72 0.0 0.0 0.00 0.00 0.00 84 1018.2
20260901083529 72 0.0 0.0 0.00 0.00 0.00 84 1018.2
20260901083424 72 0.0 0.0 0.00 0.00 0.00 84 1018.2
20260901083320 72 144 0.0 1.0 0.00 0.00 0.00 84 1018.2
20260901083215 72 0.0 0.0 0.00 0.00 0.00 84 1018.2
20260901083127 72 0.0 0.0 0.00 0.00 0.00 85 1018.3
20260901083022 72 144 0.0 1.0 0.00 0.00 0.00 85 1018.3
20260901082918 72 144 0.0 1.0 0.00 0.00 0.00 84 1018.2
20260901082850 71 144 0.0 1.0 0.00 0.00 0.00 85 1018.2
20260901082725 71 0.0 0.0 0.00 0.00 0.00 85 1018.2
20260901082621 72 0.0 0.0 0.00 0.00 0.00 84 1018.2
20260901082536 72 0.0 0.0 0.00 0.00 0.00 84 1018.0
20260901082428 72 0.0 0.0 0.00 0.00 0.00 84 1018.2
20260901082324 72 0.0 0.0 0.00 0.00 0.00 84 1018.3
20260901082219 71 0.0 0.0 0.00 0.00 0.00 84 1018.3
20260901082131 72 0.0 0.0 0.00 0.00 0.00 84 1018.3
20260901082047 71 0.0 0.0 0.00 0.00 0.00 84 1018.2
20260901081922 71 0.0 0.0 0.00 0.00 0.00 84 1018.2
20260901081818 71 0.0 0.0 0.00 0.00 0.00 84 1018.2
20260901081729 71 0.0 0.0 0.00 0.00 0.00 84 1018.2
20260901081645 72 0.0 0.0 0.00 0.00 0.00 85 1018.2
20260901081521 72 0.0 0.0 0.00 0.00 0.00 85 1018.2
20260901081416 71 144 0.0 1.0 0.00 0.00 0.00 85 1018.2
20260901081328 72 0.0 0.0 0.00 0.00 0.00 84 1018.2
20260901081223 72 0.0 0.0 0.00 0.00 0.00 84 1018.3
20260901081139 71 0.0 0.0 0.00 0.00 0.00 85 1018.1
20260901081031 72 0.0 0.0 0.00 0.00 0.00 85 1018.1
20260901080926 72 0.0 0.0 0.00 0.00 0.00 85 1018.0
20260901080821 72 0.0 0.0 0.00 0.00 0.00 85 1018.2
20260901080717 72 0.0 0.0 0.00 0.00 0.00 84 1018.1
20260901080628 72 0.0 0.0 0.00 0.00 0.00 84 1018.2
20260901080524 72 0.0 0.0 0.00 0.00 0.00 84 1018.2
20260901080420 72 0.0 0.0 0.00 0.00 0.00 84 1018.3
20260901080315 72 0.0 0.0 0.00 0.00 0.00 84 1018.0
20260901080227 72 0.0 0.0 0.00 0.00 0.00 84 1018.0
20260901080122 72 0.0 0.0 0.00 0.00 0.00 84 1018.1
20260901080018 72 0.0 0.0 0.00 0.00 0.00 85 1018.1
20260901075930 72 0.0 0.0 0.00 0.00 0.00 85 1018.1
20260901075825 72 0.0 0.0 0.00 0.00 0.00 85 1018.2
20260901075721 72 0.0 0.0 0.00 0.00 0.00 85 1018.2
20260901075616 72 0.0 0.0 0.00 0.00 0.00 85 1018.1
20260901075528 72 0.0 0.0 0.00 0.00 0.00 85 1018.1
20260901075424 72 0.0 0.0 0.00 0.00 0.00 85 1018.1
20260901075319 72 0.0 0.0 0.00 0.00 0.00 85 1018.1
20260901075231 72 0.0 0.0 0.00 0.00 0.00 85 1018.1
20260901075126 72 0.0 0.0 0.00 0.00 0.00 85 1017.9
20260901075022 72 0.0 0.0 0.00 0.00 0.00 85 1017.9
20260901074917 72 0.0 0.0 0.00 0.00 0.00 85 1017.9
20260901074829 72 0.0 0.0 0.00 0.00 0.00 85 1018.0
20260901074744 72 0.0 0.0 0.00 0.00 0.00 85 1018.1
20260901074620 72 144 0.0 1.0 0.00 0.00 0.00 85 1018.1
20260901074516 72 0.0 0.0 0.00 0.00 0.00 85 1018.1
20260901074428 72 0.0 0.0 0.00 0.00 0.00 86 1018.0
20260901074323 72 144 0.0 1.0 0.00 0.00 0.00 86 1018.1
20260901074219 72 144 0.0 1.0 0.00 0.00 0.00 85 1018.1
20260901074130 72 144 0.0 1.0 0.00 0.00 0.00 85 1017.9
20260901074025 72 144 0.0 1.0 0.00 0.00 0.00 85 1018.2
20260901073921 72 144 0.0 1.0 0.00 0.00 0.00 85 1018.2
20260901073857 72 144 1.0 1.0 0.00 0.00 0.00 85 1018.1
20260901073728 72 141 0.0 2.0 0.00 0.00 0.00 85 1018.2
20260901073624 72 132 0.0 1.0 0.00 0.00 0.00 85 1018.1
20260901073520 72 0.0 0.0 0.00 0.00 0.00 85 1018.1
20260901073435 72 132 0.0 1.0 0.00 0.00 0.00 84 1018.2
20260901073327 72 0.0 0.0 0.00 0.00 0.00 85 1018.2
20260901073222 72 132 1.0 1.0 0.00 0.00 0.00 85 1018.2
20260901073118 72 131 0.0 1.0 0.00 0.00 0.00 84 1018.1
20260901073030 72 0.0 0.0 0.00 0.00 0.00 84 1018.1
20260901072925 72 0.0 0.0 0.00 0.00 0.00 85 1018.1
20260901072821 72 0.0 0.0 0.00 0.00 0.00 85 1018.1
20260901072716 72 131 0.0 1.0 0.00 0.00 0.00 84 1018.3
20260901072628 72 0.0 0.0 0.00 0.00 0.00 84 1018.3
20260901072523 72 0.0 0.0 0.00 0.00 0.00 84 1018.1
20260901072419 72 131 0.0 1.0 0.00 0.00 0.00 84 1018.0
20260901072331 72 0.0 0.0 0.00 0.00 0.00 85 1018.3
20260901072226 72 131 0.0 1.0 0.00 0.00 0.00 85 1018.4
20260901072121 72 0.0 0.0 0.00 0.00 0.00 84 1018.2
20260901072018 72 131 0.0 1.0 0.00 0.00 0.00 85 1018.3
20260901071929 72 131 0.0 1.0 0.00 0.00 0.00 85 1018.3
20260901071844 72 0.0 0.0 0.00 0.00 0.00 84 1018.5
20260901071720 72 131 0.0 1.0 0.00 0.00 0.00 85 1018.2
20260901071615 72 131 0.0 1.0 0.00 0.00 0.00 85 1018.3
20260901071527 72 0.0 0.0 0.00 0.00 0.00 85 1018.3
20260901071422 72 131 0.0 1.0 0.00 0.00 0.00 85 1018.2
20260901071318 72 0.0 0.0 0.00 0.00 0.00 84 1018.2
20260901071230 72 131 0.0 1.0 0.00 0.00 0.00 84 1018.3
20260901071125 72 0.0 0.0 0.00 0.00 0.00 84 1018.3
20260901071021 72 0.0 0.0 0.00 0.00 0.00 84 1018.1
20260901070916 72 0.0 0.0 0.00 0.00 0.00 84 1018.2
20260901070828 72 131 0.0 1.0 0.00 0.00 0.00 84 1018.3
20260901070824 72 131 0.0 1.0 0.00 0.00 0.00 84 1018.4
20260901070619 72 131 1.0 1.0 0.00 0.00 0.00 84 1018.4
20260901070531 72 131 0.0 1.0 0.00 0.00 0.00 84 1018.4
20260901070427 72 131 0.0 1.0 0.00 0.00 0.00 84 1018.4
20260901070342 72 131 0.0 1.0 0.00 0.00 0.00 84 1018.5
20260901070217 72 131 0.0 1.0 0.00 0.00 0.00 84 1018.3
20260901070149 72 131 0.0 1.0 0.00 0.00 0.00 84 1018.4
20260901070105 72 131 0.0 1.0 0.00 0.00 0.00 83 1018.6
20260901065920 72 131 0.0 1.0 0.00 0.00 0.00 83 1018.6
20260901065816 72 131 0.0 1.0 0.00 0.00 0.00 83 1018.5
20260901065728 72 0.0 0.0 0.00 0.00 0.00 83 1018.6
20260901065623 72 131 0.0 1.0 0.00 0.00 0.00 83 1018.5
20260901065519 72 0.0 0.0 0.00 0.00 0.00 83 1018.4
20260901065431 72 0.0 0.0 0.00 0.00 0.00 83 1018.6
20260901065326 72 131 0.0 1.0 0.00 0.00 0.00 83 1018.6
20260901065221 72 131 0.0 1.0 0.00 0.00 0.00 82 1018.5
20260901065117 72 0.0 0.0 0.00 0.00 0.00 82 1018.7
20260901065029 72 0.0 0.0 0.00 0.00 0.00 82 1018.6
20260901064924 72 0.0 0.0 0.00 0.00 0.00 82 1018.6
20260901064820 72 0.0 0.0 0.00 0.00 0.00 82 1018.6
20260901064716 72 0.0 0.0 0.00 0.00 0.00 82 1018.6
20260901064627 72 0.0 0.0 0.00 0.00 0.00 82 1018.7
20260901064523 72 0.0 0.0 0.00 0.00 0.00 82 1018.7
20260901064418 72 0.0 0.0 0.00 0.00 0.00 82 1018.7
20260901064330 72 0.0 0.0 0.00 0.00 0.00 82 1018.8
20260901064226 72 0.0 0.0 0.00 0.00 0.00 82 1018.6
20260901064121 72 0.0 0.0 0.00 0.00 0.00 82 1018.5
20260901064017 72 0.0 0.0 0.00 0.00 0.00 82 1018.5
20260901063928 72 0.0 0.0 0.00 0.00 0.00 82 1018.6
20260901063824 72 0.0 0.0 0.00 0.00 0.00 82 1018.6
20260901063719 72 0.0 0.0 0.00 0.00 0.00 82 1018.5
20260901063635 72 0.0 0.0 0.00 0.00 0.00 82 1018.6
20260901063527 72 0.0 0.0 0.00 0.00 0.00 82 1018.6
20260901063422 72 0.0 0.0 0.00 0.00 0.00 82 1018.6
20260901063338 72 0.0 0.0 0.00 0.00 0.00 82 1018.6
20260901063229 72 0.0 0.0 0.00 0.00 0.00 82 1018.6
20260901063125 72 0.0 0.0 0.00 0.00 0.00 82 1018.7
20260901063020 72 0.0 0.0 0.00 0.00 0.00 82 1018.5
20260901062916 72 0.0 0.0 0.00 0.00 0.00 82 1018.5
20260901062827 72 0.0 0.0 0.00 0.00 0.00 82 1018.6
20260901062723 72 0.0 0.0 0.00 0.00 0.00 82 1018.6
20260901062618 72 0.0 0.0 0.00 0.00 0.00 82 1018.6
20260901062550 72 0.0 0.0 0.00 0.00 0.00 83 1018.7
20260901062426 72 0.0 0.0 0.00 0.00 0.00 83 1018.6
20260901062321 72 0.0 0.0 0.00 0.00 0.00 83 1018.6
20260901062237 72 0.0 0.0 0.00 0.00 0.00 83 1018.7
20260901062128 72 0.0 0.0 0.00 0.00 0.00 83 1018.7
20260901062024 72 0.0 0.0 0.00 0.00 0.00 83 1018.7
20260901061919 72 0.0 0.0 0.00 0.00 0.00 83 1018.7
20260901061831 72 0.0 0.0 0.00 0.00 0.00 83 1018.7
20260901061746 72 0.0 0.0 0.00 0.00 0.00 82 1018.7
20260901061622 72 0.0 0.0 0.00 0.00 0.00 82 1018.7
20260901061517 72 0.0 0.0 0.00 0.00 0.00 82 1018.7
20260901061429 72 0.0 0.0 0.00 0.00 0.00 82 1018.7
20260901061324 72 0.0 0.0 0.00 0.00 0.00 82 1018.6
20260901061220 72 0.0 0.0 0.00 0.00 0.00 82 1018.8
20260901061115 72 0.0 0.0 0.00 0.00 0.00 82 1018.6
20260901061027 72 0.0 0.0 0.00 0.00 0.00 82 1018.8
20260901060943 72 0.0 0.0 0.00 0.00 0.00 82 1018.8
20260901060819 72 0.0 0.0 0.00 0.00 0.00 82 1018.8
20260901060730 72 0.0 0.0 0.00 0.00 0.00 82 1018.9
20260901060626 72 0.0 0.0 0.00 0.00 0.00 82 1018.8
20260901060521 72 0.0 0.0 0.00 0.00 0.00 82 1018.9
20260901060437 72 0.0 0.0 0.00 0.00 0.00 82 1018.8
20260901060329 72 0.0 0.0 0.00 0.00 0.00 82 1018.9
20260901060224 72 0.0 0.0 0.00 0.00 0.00 82 1018.9
20260901060120 72 0.0 0.0 0.00 0.00 0.00 82 1018.6
20260901060015 72 0.0 0.0 0.00 0.00 0.00 83 1018.9
20260901055927 72 131 0.0 1.0 0.00 0.00 0.00 83 1018.9
20260901055822 72 0.0 0.0 0.00 0.00 0.00 83 1018.9
20260901055718 72 0.0 0.0 0.00 0.00 0.00 83 1018.8
20260901055630 72 0.0 0.0 0.00 0.00 0.00 82 1018.8
20260901055525 72 0.0 0.0 0.00 0.00 0.00 83 1018.9
20260901055421 72 0.0 0.0 0.00 0.00 0.00 83 1018.9
20260901055316 72 131 0.0 1.0 0.00 0.00 0.00 83 1019.2
20260901055228 72 0.0 0.0 0.00 0.00 0.00 83 1019.0
20260901055143 72 0.0 0.0 0.00 0.00 0.00 83 1019.1
20260901055019 72 131 0.0 1.0 0.00 0.00 0.00 83 1019.2
20260901054930 72 131 1.0 1.0 0.00 0.00 0.00 83 1018.8
20260901054826 72 0.0 0.0 0.00 0.00 0.00 83 1019.0
20260901054721 72 0.0 0.0 0.00 0.00 0.00 83 1019.0
20260901054637 72 131 0.0 1.0 0.00 0.00 0.00 84 1018.9
20260901054529 72 131 0.0 1.0 0.00 0.00 0.00 84 1019.0
20260901054424 72 0.0 0.0 0.00 0.00 0.00 83 1019.1
20260901054319 72 131 1.0 1.0 0.00 0.00 0.00 83 1019.1
20260901054231 72 131 0.0 1.0 0.00 0.00 0.00 83 1019.1
20260901054126 72 131 0.0 1.0 0.00 0.00 0.00 82 1018.9
20260901054022 72 131 0.0 1.0 0.00 0.00 0.00 82 1019.3
20260901053917 72 131 0.0 1.0 0.00 0.00 0.00 82 1019.4
20260901053829 72 131 0.0 1.0 0.00 0.00 0.00 82 1019.3
20260901053725 72 131 0.0 1.0 0.00 0.00 0.00 82 1019.2
20260901053620 72 131 0.0 1.0 0.00 0.00 0.00 82 1019.3
20260901053516 72 0.0 0.0 0.00 0.00 0.00 82 1018.9
20260901053428 72 0.0 0.0 0.00 0.00 0.00 83 1019.1
20260901053323 72 131 0.0 1.0 0.00 0.00 0.00 83 1019.1
20260901053219 72 131 0.0 1.0 0.00 0.00 0.00 82 1019.2
20260901053150 72 0.0 0.0 0.00 0.00 0.00 82 1019.2
20260901053026 72 131 0.0 1.0 0.00 0.00 0.00 83 1019.2
20260901052941 72 131 0.0 1.0 0.00 0.00 0.00 83 1019.4
20260901052836 72 131 0.0 1.0 0.00 0.00 0.00 83 1019.1
20260901052728 72 131 1.0 1.0 0.00 0.00 0.00 82 1019.2
20260901052623 72 131 0.0 1.0 0.00 0.00 0.00 82 1019.3
20260901052519 72 131 0.0 1.0 0.00 0.00 0.00 82 1019.3
20260901052510 72 131 1.0 1.0 0.00 0.00 0.00 82 1019.3
20260901052326 72 131 0.0 1.0 0.00 0.00 0.00 81 1019.2
20260901052302 72 131 0.0 1.0 0.00 0.00 0.00 81 1019.5
20260901052117 72 0.0 0.0 0.00 0.00 0.00 81 1019.4
20260901052029 72 0.0 0.0 0.00 0.00 0.00 81 1019.3
20260901051924 72 0.0 0.0 0.00 0.00 0.00 81 1019.4
20260901051820 72 0.0 0.0 0.00 0.00 0.00 82 1019.7
20260901051715 72 131 0.0 1.0 0.00 0.00 0.00 82 1019.6
20260901051627 72 131 0.0 1.0 0.00 0.00 0.00 81 1019.4
20260901051522 72 0.0 0.0 0.00 0.00 0.00 81 1019.4
20260901051418 72 0.0 0.0 0.00 0.00 0.00 82 1019.6
20260901051329 72 0.0 0.0 0.00 0.00 0.00 82 1019.3
20260901051225 72 131 0.0 1.0 0.00 0.00 0.00 81 1019.4
20260901051121 72 0.0 0.0 0.00 0.00 0.00 81 1019.4
20260901051016 72 0.0 0.0 0.00 0.00 0.00 81 1019.4
20260901050928 72 0.0 0.0 0.00 0.00 0.00 81 1019.3
20260901050824 72 0.0 0.0 0.00 0.00 0.00 82 1019.5
20260901050719 72 0.0 0.0 0.00 0.00 0.00 81 1019.6
20260901050630 72 0.0 0.0 0.00 0.00 0.00 81 1019.4
20260901050526 72 0.0 0.0 0.00 0.00 0.00 82 1019.4
20260901050441 72 0.0 0.0 0.00 0.00 0.00 82 1019.6
20260901050317 72 131 0.0 1.0 0.00 0.00 0.00 82 1019.4
20260901050229 72 131 0.0 1.0 0.00 0.00 0.00 83 1019.4
20260901050124 72 131 0.0 1.0 0.00 0.00 0.00 82 1019.4
20260901050020 72 0.0 0.0 0.00 0.00 0.00 81 1019.3
20260901045915 72 0.0 0.0 0.00 0.00 0.00 81 1019.3
20260901045827 72 0.0 0.0 0.00 0.00 0.00 81 1019.3
20260901045722 72 0.0 0.0 0.00 0.00 0.00 82 1019.3
20260901045618 72 131 1.0 1.0 0.00 0.00 0.00 82 1019.5
20260901045529 72 0.0 0.0 0.00 0.00 0.00 82 1019.5
20260901045505 72 0.0 0.0 0.00 0.00 0.00 82 1019.3
20260901045320 72 0.0 0.0 0.00 0.00 0.00 81 1019.5
20260901045216 72 131 0.0 1.0 0.00 0.00 0.00 81 1019.6
20260901045127 72 0.0 0.0 0.00 0.00 0.00 81 1019.4
20260901045023 72 0.0 0.0 0.00 0.00 0.00 81 1019.3
20260901044918 72 131 0.0 1.0 0.00 0.00 0.00 82 1019.3
20260901044850 72 0.0 0.0 0.00 0.00 0.00 81 1019.4
20260901044725 72 0.0 0.0 0.00 0.00 0.00 81 1019.4
20260901044621 72 131 0.0 1.0 0.00 0.00 0.00 82 1019.5
20260901044516 72 131 0.0 1.0 0.00 0.00 0.00 82 1019.5
20260901044448 72 131 2.0 2.0 0.00 0.00 0.00 81 1019.3
20260901044323 72 128 1.0 1.0 0.00 0.00 0.00 81 1019.4
20260901044219 72 128 0.0 1.0 0.00 0.00 0.00 82 1019.2
20260901044213 72 128 0.0 1.0 0.00 0.00 0.00 82 1019.5
20260901044026 72 128 1.0 2.0 0.00 0.00 0.00 82 1019.5
20260901043921 72 128 1.0 2.0 0.00 0.00 0.00 82 1019.5
20260901043817 72 128 1.0 1.0 0.00 0.00 0.00 82 1019.5
20260901043729 72 128 0.0 1.0 0.00 0.00 0.00 82 1019.4
20260901043624 72 126 1.0 2.0 0.00 0.00 0.00 81 1019.4
20260901043520 72 121 0.0 1.0 0.00 0.00 0.00 81 1019.5
20260901043415 72 121 0.0 1.0 0.00 0.00 0.00 81 1019.4
20260901043327 72 121 1.0 1.0 0.00 0.00 0.00 81 1019.5
20260901043222 72 121 0.0 1.0 0.00 0.00 0.00 81 1019.4
20260901043118 72 121 0.0 1.0 0.00 0.00 0.00 81 1019.4
20260901043030 72 0.0 0.0 0.00 0.00 0.00 81 1019.5
20260901042925 72 121 0.0 1.0 0.00 0.00 0.00 81 1019.5
20260901042821 72 121 0.0 1.0 0.00 0.00 0.00 82 1019.5
20260901042717 72 121 0.0 1.0 0.00 0.00 0.00 82 1019.7
20260901042628 72 0.0 0.0 0.00 0.00 0.00 81 1019.3
20260901042524 72 121 0.0 1.0 0.00 0.00 0.00 81 1019.5
20260901042419 72 121 0.0 1.0 0.00 0.00 0.00 81 1019.5
20260901042331 72 121 0.0 1.0 0.00 0.00 0.00 81 1019.7
20260901042247 72 121 0.0 1.0 0.00 0.00 0.00 81 1019.5
20260901042122 72 121 0.0 1.0 0.00 0.00 0.00 81 1019.4
20260901042018 72 0.0 0.0 0.00 0.00 0.00 81 1019.3
20260901041929 72 0.0 0.0 0.00 0.00 0.00 81 1019.6
20260901041825 72 121 0.0 1.0 0.00 0.00 0.00 81 1019.4
20260901041722 72 121 0.0 1.0 0.00 0.00 0.00 81 1019.4
20260901041616 72 121 1.0 1.0 0.00 0.00 0.00 81 1019.4
20260901041528 72 121 1.0 2.0 0.00 0.00 0.00 81 1019.4
20260901041423 72 121 1.0 2.0 0.00 0.00 0.00 80 1019.4
20260901041319 72 0.0 0.0 0.00 0.00 0.00 81 1019.5
20260901041251 72 122 0.0 1.0 0.00 0.00 0.00 81 1019.5
20260901041126 72 0.0 0.0 0.00 0.00 0.00 81 1019.5
20260901041021 72 122 0.0 1.0 0.00 0.00 0.00 81 1019.5
20260901040937 72 122 1.0 2.0 0.00 0.00 0.00 81 1019.6
20260901040829 72 122 1.0 2.0 0.00 0.00 0.00 81 1019.6
20260901040736 72 122 1.0 1.0 0.00 0.00 0.00 80 1019.7
20260901040620 72 0.0 0.0 0.00 0.00 0.00 80 1019.7
20260901040515 72 122 0.0 1.0 0.00 0.00 0.00 80 1019.6
20260901040447 72 122 0.0 1.0 0.00 0.00 0.00 80 1019.7
20260901040322 72 122 0.0 1.0 0.00 0.00 0.00 80 1019.6
20260901040218 72 122 1.0 1.0 0.00 0.00 0.00 80 1019.7
20260901040130 72 122 0.0 1.0 0.00 0.00 0.00 80 1019.6
20260901040045 72 122 0.0 1.0 0.00 0.00 0.00 80 1019.6
20260901035921 72 122 1.0 1.0 0.00 0.00 0.00 81 1019.7
20260901035817 72 122 0.0 2.0 0.00 0.00 0.00 81 1019.6
20260901035728 72 122 0.0 1.0 0.00 0.00 0.00 81 1019.5
20260901035644 72 122 0.0 1.0 0.00 0.00 0.00 80 1019.5
20260901035519 72 122 1.0 2.0 0.00 0.00 0.00 80 1019.5
20260901035451 72 122 0.0 1.0 0.00 0.00 0.00 80 1019.5
20260901035326 72 122 1.0 1.0 0.00 0.00 0.00 80 1019.4
20260901035241 72 122 1.0 1.0 0.00 0.00 0.00 80 1019.5
20260901035117 73 122 0.0 1.0 0.00 0.00 0.00 80 1019.6
20260901035028 73 121 0.0 1.0 0.00 0.00 0.00 80 1019.6
20260901034924 73 122 0.0 1.0 0.00 0.00 0.00 80 1019.6
20260901034840 73 121 0.0 1.0 0.00 0.00 0.00 79 1019.6
20260901034715 73 121 0.0 1.0 0.00 0.00 0.00 79 1019.6
20260901034627 73 0.0 0.0 0.00 0.00 0.00 79 1019.5
20260901034522 73 121 0.0 1.0 0.00 0.00 0.00 79 1019.5
20260901034418 73 0.0 0.0 0.00 0.00 0.00 80 1019.5
20260901034406 73 121 1.0 1.0 0.00 0.00 0.00 79 1019.5
20260901034121 73 121 1.0 2.0 0.00 0.00 0.00 79 1019.5
20260901034016 73 121 0.0 1.0 0.00 0.00 0.00 79 1019.6
20260901033948 73 0.0 0.0 0.00 0.00 0.00 79 1019.6
20260901033824 73 121 0.0 1.0 0.00 0.00 0.00 79 1019.5
20260901033739 73 121 0.0 1.0 0.00 0.00 0.00 79 1019.6
20260901033631 73 0.0 0.0 0.00 0.00 0.00 79 1019.5
20260901033526 73 0.0 0.0 0.00 0.00 0.00 79 1019.5
20260901033422 73 121 0.0 1.0 0.00 0.00 0.00 80 1019.6
20260901033318 73 121 0.0 1.0 0.00 0.00 0.00 80 1019.7
20260901033229 73 121 1.0 1.0 0.00 0.00 0.00 79 1019.6
20260901033125 73 121 0.0 1.0 0.00 0.00 0.00 79 1019.7
20260901033020 73 121 1.0 1.0 0.00 0.00 0.00 80 1019.9
20260901032916 73 121 0.0 1.0 0.00 0.00 0.00 80 1019.7
20260901032827 73 0.0 0.0 0.00 0.00 0.00 79 1019.8
20260901032723 73 0.0 0.0 0.00 0.00 0.00 79 1019.7
20260901032619 73 0.0 0.0 0.00 0.00 0.00 79 1019.7
20260901032530 73 0.0 0.0 0.00 0.00 0.00 80 1019.8
20260901032426 73 121 0.0 1.0 0.00 0.00 0.00 80 1019.7
20260901032322 73 121 1.0 1.0 0.00 0.00 0.00 79 1019.6
20260901032217 73 0.0 0.0 0.00 0.00 0.00 79 1019.8
20260901032129 73 0.0 0.0 0.00 0.00 0.00 79 1019.7
20260901032025 73 0.0 0.0 0.00 0.00 0.00 79 1019.8
20260901031920 73 0.0 0.0 0.00 0.00 0.00 79 1019.8
20260901031816 73 121 0.0 1.0 0.00 0.00 0.00 79 1019.8
20260901031748 73 121 0.0 1.0 0.00 0.00 0.00 79 1019.7
20260901031623 73 0.0 0.0 0.00 0.00 0.00 78 1019.8
20260901031519 73 0.0 0.0 0.00 0.00 0.00 78 1019.8
20260901031431 73 0.0 0.0 0.00 0.00 0.00 78 1019.9
20260901031346 73 0.0 0.0 0.00 0.00 0.00 79 1019.8
20260901031222 73 0.0 0.0 0.00 0.00 0.00 79 1019.7
20260901031157 73 121 0.0 1.0 0.00 0.00 0.00 79 1019.9
20260901031029 73 121 0.0 1.0 0.00 0.00 0.00 79 1019.9
20260901030925 73 0.0 0.0 0.00 0.00 0.00 79 1019.8
20260901030820 73 121 0.0 1.0 0.00 0.00 0.00 79 1019.8
20260901030716 73 121 0.0 1.0 0.00 0.00 0.00 79 1019.8
20260901030648 73 121 1.0 1.0 0.00 0.00 0.00 79 1020.0
20260901030523 73 121 1.0 1.0 0.00 0.00 0.00 79 1019.7
20260901030419 73 121 0.0 1.0 0.00 0.00 0.00 79 1019.9